GEFSSGP_prec_meanprecacc_066.txt.gz
Total_Precipitation_Accumulation
0.00 0.01 0.05 0.12 0.25 0.39 0.39 0.15 0.05 0.02 0.02 0.02 0.02 0.03 0.04 0.04 0.06 0.11 0.03 0.01 0.00 0.00 0.01 0.01 0.01 0.00 0.00 0.00 0.00 0.01 0.01 0.01 0.01 0.01 0.01 0.01 0.00 0.00 0.00 0.01 0.01 0.01 0.01 0.01 0.01 0.01 0.00 0.00 0.00
0.00 0.01 0.04 0.11 0.29 0.65 0.44 0.08 0.03 0.02 0.01 0.02 0.04 0.05 0.02 0.02 0.02 0.02 0.01 0.00 0.00 0.00 0.00 0.00 0.01 0.00 0.01 0.00 0.01 0.01 0.01 0.01 0.01 0.01 0.01 0.01 0.01 0.01 0.01 0.01 0.01 0.01 0.01 0.01 0.01 0.00 0.00 0.00 0.00
0.00 0.00 0.03 0.07 0.22 0.41 0.31 0.07 0.03 0.02 0.02 0.03 0.04 0.02 0.01 0.01 0.01 0.01 0.01 0.00 0.00 0.00 0.00 0.00 0.01 0.01 0.01 0.01 0.01 0.01 0.01 0.01 0.02 0.01 0.01 0.01 0.01 0.01 0.01 0.01 0.01 0.02 0.02 0.01 0.01 0.00 0.00 0.00 0.00
0.00 0.00 0.01 0.02 0.10 0.17 0.14 0.08 0.05 0.03 0.02 0.02 0.02 0.01 0.01 0.01 0.01 0.00 0.00 0.00 0.00 0.00 0.00 0.00 0.01 0.01 0.01 0.01 0.01 0.01 0.01 0.01 0.02 0.02 0.02 0.02 0.02 0.02 0.01 0.01 0.01 0.02 0.01 0.01 0.01 0.01 0.00 0.00 0.00
0.00 0.00 0.00 0.01 0.06 0.11 0.13 0.12 0.07 0.04 0.02 0.02 0.01 0.02 0.02 0.01 0.01 0.00 0.00 0.00 0.00 0.00 0.00 0.00 0.01 0.01 0.01 0.01 0.01 0.01 0.01 0.01 0.02 0.02 0.02 0.02 0.02 0.03 0.02 0.01 0.01 0.02 0.01 0.01 0.01 0.01 0.00 0.00 0.00
0.00 0.00 0.00 0.01 0.04 0.09 0.14 0.11 0.09 0.07 0.03 0.02 0.02 0.02 0.01 0.01 0.01 0.00 0.00 0.00 0.00 0.00 0.00 0.00 0.01 0.02 0.01 0.01 0.01 0.01 0.01 0.02 0.02 0.02 0.02 0.02 0.02 0.02 0.02 0.02 0.01 0.03 0.03 0.02 0.01 0.01 0.00 0.00 0.00
0.00 0.00 0.00 0.01 0.04 0.07 0.08 0.10 0.10 0.06 0.03 0.03 0.03 0.02 0.06 0.04 0.01 0.01 0.01 0.00 0.00 0.00 0.00 0.01 0.01 0.02 0.02 0.02 0.02 0.02 0.02 0.02 0.02 0.02 0.02 0.02 0.02 0.02 0.02 0.02 0.02 0.03 0.04 0.05 0.04 0.02 0.01 0.01 0.01
0.00 0.00 0.00 0.00 0.02 0.04 0.03 0.05 0.07 0.07 0.05 0.03 0.05 0.05 0.11 0.07 0.01 0.02 0.02 0.01 0.00 0.01 0.01 0.01 0.01 0.01 0.02 0.02 0.02 0.02 0.02 0.02 0.02 0.02 0.02 0.02 0.03 0.03 0.04 0.04 0.04 0.04 0.05 0.06 0.06 0.05 0.05 0.06 0.07
0.00 0.00 0.00 0.00 0.00 0.01 0.02 0.03 0.05 0.06 0.06 0.06 0.10 0.14 0.08 0.06 0.02 0.02 0.03 0.03 0.02 0.02 0.01 0.01 0.01 0.02 0.02 0.02 0.02 0.02 0.03 0.03 0.03 0.03 0.03 0.03 0.03 0.08 0.12 0.17 0.22 0.19 0.18 0.16 0.14 0.15 0.16 0.15 0.09
0.00 0.00 0.00 0.00 0.00 0.01 0.01 0.02 0.03 0.04 0.06 0.12 0.23 0.25 0.12 0.07 0.05 0.03 0.04 0.07 0.06 0.04 0.03 0.03 0.02 0.03 0.03 0.02 0.03 0.03 0.03 0.04 0.03 0.05 0.11 0.13 0.16 0.15 0.09 0.24 0.36 0.39 0.47 0.43 0.40 0.55 0.45 0.27 0.17
0.00 0.00 0.00 0.00 0.00 0.00 0.01 0.01 0.01 0.02 0.07 0.21 0.31 0.29 0.17 0.10 0.10 0.07 0.07 0.12 0.09 0.07 0.05 0.06 0.07 0.07 0.08 0.07 0.06 0.06 0.06 0.14 0.14 0.14 0.23 0.35 0.35 0.22 0.13 0.17 0.37 0.58 0.77 0.70 0.80 0.96 0.64 0.54 0.61
0.00 0.00 0.00 0.00 0.00 0.00 0.00 0.01 0.02 0.02 0.03 0.13 0.36 0.34 0.16 0.12 0.09 0.10 0.14 0.17 0.16 0.14 0.15 0.19 0.17 0.18 0.19 0.21 0.21 0.19 0.21 0.27 0.28 0.37 0.43 0.57 0.59 0.46 0.39 0.38 0.46 0.68 0.86 1.16 1.20 1.12 1.04 1.02 0.96
0.00 0.00 0.00 0.00 0.00 0.00 0.00 0.01 0.02 0.03 0.02 0.03 0.12 0.20 0.12 0.09 0.12 0.15 0.21 0.24 0.27 0.30 0.41 0.49 0.45 0.47 0.52 0.56 0.55 0.46 0.45 0.45 0.45 0.57 0.67 0.85 1.00 0.91 0.88 0.84 0.82 0.75 0.92 1.23 1.43 1.39 1.43 1.40 1.31
0.00 0.00 0.00 0.00 0.00 0.00 0.01 0.02 0.04 0.04 0.03 0.03 0.06 0.14 0.16 0.16 0.20 0.26 0.30 0.35 0.40 0.50 0.67 0.81 0.88 0.98 1.00 0.94 0.92 0.86 0.70 0.64 0.63 0.77 0.93 1.13 1.27 1.40 1.45 1.38 1.28 1.02 1.01 1.10 1.40 1.54 1.72 1.61 1.50
0.00 0.00 0.00 0.00 0.01 0.01 0.02 0.04 0.06 0.07 0.06 0.06 0.07 0.10 0.15 0.25 0.32 0.35 0.42 0.50 0.64 0.84 1.00 1.16 1.34 1.49 1.49 1.37 1.25 1.10 0.99 0.96 1.04 1.14 1.22 1.42 1.62 1.76 1.76 1.52 1.25 1.10 1.22 1.32 1.28 1.30 1.59 1.39 1.25
0.00 0.00 0.00 0.01 0.02 0.02 0.03 0.07 0.09 0.09 0.09 0.09 0.10 0.11 0.14 0.21 0.28 0.34 0.44 0.63 0.92 1.15 1.27 1.48 1.65 1.74 1.83 1.78 1.74 1.53 1.35 1.36 1.34 1.31 1.30 1.42 1.61 1.64 1.65 1.29 0.96 1.08 1.32 1.41 1.35 1.30 1.37 1.34 1.40
0.00 0.00 0.01 0.04 0.04 0.03 0.05 0.11 0.12 0.13 0.13 0.13 0.13 0.16 0.19 0.24 0.31 0.40 0.56 0.89 1.26 1.55 1.84 2.10 2.23 2.15 2.17 2.17 2.11 1.96 1.77 1.56 1.41 1.37 1.29 1.22 1.21 1.28 1.35 1.05 0.89 1.07 1.22 1.24 1.20 1.33 1.44 1.32 1.38
0.03 0.04 0.06 0.08 0.07 0.07 0.13 0.16 0.18 0.18 0.18 0.20 0.20 0.20 0.23 0.28 0.39 0.55 0.80 1.16 1.53 1.89 2.35 2.69 2.71 2.51 2.26 2.04 1.78 1.72 1.63 1.56 1.46 1.35 1.22 1.10 1.02 1.05 1.21 1.09 0.98 1.11 1.18 1.12 1.25 1.35 1.43 1.24 1.21
0.04 0.05 0.10 0.12 0.09 0.09 0.19 0.27 0.30 0.31 0.35 0.33 0.31 0.29 0.26 0.34 0.51 0.72 1.03 1.37 1.71 2.07 2.54 2.73 2.68 2.24 1.78 1.58 1.39 1.30 1.20 1.16 1.21 1.22 1.18 1.13 1.03 1.01 1.15 1.05 0.96 0.95 0.97 0.93 1.08 1.19 1.18 0.97 1.18
0.07 0.07 0.12 0.14 0.09 0.09 0.20 0.42 0.51 0.53 0.40 0.33 0.27 0.32 0.33 0.45 0.69 1.06 1.50 1.72 1.68 1.93 2.42 2.46 2.01 1.56 1.27 1.12 1.00 0.90 0.88 0.87 0.85 0.83 0.81 0.80 0.81 0.86 0.93 0.90 0.81 0.77 0.78 0.78 0.85 0.98 0.98 0.87 1.14
0.10 0.10 0.13 0.13 0.10 0.14 0.25 0.47 0.69 0.63 0.41 0.29 0.24 0.25 0.34 0.54 0.84 1.17 1.51 1.61 1.50 1.71 1.75 1.46 1.16 0.90 0.71 0.61 0.57 0.60 0.57 0.57 0.51 0.46 0.46 0.52 0.58 0.59 0.59 0.59 0.64 0.68 0.68 0.69 0.75 0.90 1.02 0.89 0.92
0.06 0.05 0.05 0.05 0.07 0.16 0.29 0.57 0.86 0.74 0.50 0.37 0.30 0.33 0.36 0.39 0.53 0.75 0.95 1.07 1.14 1.15 1.00 0.82 0.71 0.59 0.53 0.53 0.47 0.53 0.47 0.43 0.38 0.34 0.34 0.39 0.42 0.42 0.41 0.43 0.53 0.60 0.66 0.70 0.65 0.70 0.85 0.90 0.83
0.04 0.03 0.03 0.05 0.06 0.11 0.28 0.53 0.81 0.86 0.73 0.55 0.43 0.40 0.33 0.26 0.30 0.41 0.46 0.53 0.60 0.62 0.57 0.47 0.54 0.60 0.56 0.52 0.46 0.42 0.36 0.31 0.28 0.31 0.34 0.39 0.41 0.41 0.38 0.37 0.39 0.49 0.57 0.64 0.66 0.67 0.72 0.79 0.77
0.03 0.04 0.07 0.12 0.15 0.32 0.35 0.43 0.69 0.72 0.70 0.63 0.48 0.34 0.25 0.22 0.26 0.30 0.28 0.25 0.25 0.26 0.26 0.26 0.33 0.42 0.42 0.42 0.40 0.37 0.34 0.32 0.29 0.28 0.30 0.32 0.36 0.38 0.38 0.38 0.40 0.42 0.43 0.46 0.53 0.59 0.64 0.69 0.71
0.04 0.05 0.13 0.33 0.46 0.55 0.37 0.43 0.65 0.59 0.65 0.68 0.45 0.25 0.18 0.17 0.18 0.21 0.22 0.18 0.16 0.14 0.13 0.12 0.14 0.23 0.27 0.29 0.32 0.32 0.32 0.31 0.29 0.25 0.25 0.26 0.26 0.31 0.35 0.37 0.41 0.47 0.47 0.48 0.49 0.55 0.61 0.68 0.72
0.04 0.04 0.06 0.09 0.15 0.25 0.33 0.72 0.75 0.47 0.49 0.40 0.21 0.11 0.09 0.09 0.09 0.11 0.11 0.10 0.09 0.08 0.07 0.06 0.06 0.08 0.09 0.13 0.17 0.19 0.22 0.23 0.25 0.31 0.29 0.25 0.24 0.27 0.33 0.39 0.42 0.45 0.50 0.53 0.59 0.63 0.68 0.73 0.75
0.04 0.03 0.03 0.04 0.05 0.14 0.35 0.64 0.52 0.31 0.32 0.20 0.11 0.05 0.04 0.05 0.05 0.05 0.05 0.05 0.04 0.04 0.04 0.04 0.04 0.04 0.05 0.05 0.08 0.10 0.14 0.18 0.24 0.30 0.28 0.24 0.24 0.23 0.24 0.31 0.42 0.43 0.46 0.53 0.62 0.67 0.72 0.77 0.82
0.04 0.03 0.03 0.03 0.04 0.07 0.22 0.49 0.52 0.38 0.31 0.17 0.08 0.04 0.03 0.03 0.03 0.03 0.03 0.03 0.03 0.02 0.02 0.02 0.03 0.03 0.03 0.03 0.03 0.05 0.11 0.19 0.26 0.30 0.26 0.23 0.21 0.20 0.20 0.24 0.32 0.35 0.38 0.47 0.59 0.67 0.74 0.85 0.93
0.04 0.04 0.04 0.04 0.05 0.06 0.11 0.25 0.24 0.25 0.20 0.11 0.06 0.04 0.01 0.01 0.01 0.01 0.01 0.01 0.01 0.01 0.01 0.02 0.02 0.02 0.02 0.02 0.03 0.07 0.16 0.21 0.27 0.42 0.40 0.25 0.19 0.17 0.16 0.17 0.18 0.20 0.23 0.31 0.47 0.68 0.79 0.90 0.95
0.05 0.05 0.04 0.05 0.05 0.04 0.06 0.14 0.10 0.11 0.09 0.06 0.04 0.02 0.01 0.01 0.00 0.00 0.00 0.01 0.01 0.01 0.01 0.01 0.02 0.02 0.02 0.02 0.02 0.05 0.15 0.20 0.23 0.30 0.33 0.26 0.21 0.18 0.15 0.14 0.13 0.12 0.15 0.23 0.39 0.56 0.72 0.86 0.98

GEFSSGP_prec_meanprecacc_072.txt.gz
Total_Precipitation_Accumulation
0.00 0.01 0.05 0.12 0.25 0.39 0.39 0.15 0.05 0.02 0.02 0.02 0.03 0.03 0.04 0.04 0.06 0.15 0.07 0.01 0.01 0.00 0.01 0.01 0.01 0.01 0.01 0.01 0.02 0.02 0.03 0.02 0.02 0.02 0.02 0.01 0.01 0.00 0.01 0.01 0.01 0.01 0.01 0.01 0.01 0.01 0.00 0.00 0.00
0.00 0.01 0.04 0.11 0.29 0.65 0.45 0.08 0.04 0.02 0.02 0.02 0.04 0.05 0.02 0.02 0.03 0.03 0.02 0.01 0.00 0.00 0.01 0.01 0.01 0.01 0.01 0.01 0.02 0.02 0.02 0.02 0.02 0.02 0.01 0.01 0.01 0.01 0.01 0.01 0.01 0.02 0.02 0.01 0.01 0.00 0.00 0.00 0.00
0.00 0.00 0.03 0.07 0.22 0.41 0.31 0.07 0.03 0.02 0.03 0.03 0.04 0.03 0.01 0.01 0.03 0.02 0.01 0.00 0.00 0.00 0.00 0.01 0.01 0.01 0.01 0.01 0.01 0.01 0.02 0.02 0.02 0.02 0.01 0.01 0.01 0.01 0.01 0.01 0.01 0.02 0.02 0.01 0.01 0.01 0.00 0.00 0.00
0.00 0.00 0.01 0.02 0.10 0.17 0.14 0.08 0.05 0.03 0.02 0.02 0.02 0.01 0.01 0.01 0.01 0.01 0.00 0.00 0.00 0.00 0.00 0.01 0.02 0.02 0.01 0.01 0.01 0.01 0.01 0.02 0.02 0.02 0.02 0.02 0.03 0.02 0.02 0.01 0.02 0.02 0.02 0.01 0.01 0.01 0.00 0.00 0.00
0.00 0.00 0.00 0.01 0.06 0.11 0.13 0.12 0.07 0.04 0.02 0.02 0.01 0.02 0.02 0.01 0.01 0.01 0.00 0.00 0.00 0.00 0.00 0.01 0.02 0.03 0.02 0.02 0.02 0.02 0.02 0.02 0.02 0.02 0.02 0.02 0.03 0.03 0.02 0.02 0.02 0.03 0.02 0.02 0.01 0.01 0.01 0.00 0.00
0.00 0.00 0.00 0.01 0.04 0.09 0.14 0.12 0.09 0.07 0.03 0.02 0.02 0.02 0.02 0.02 0.01 0.01 0.01 0.00 0.00 0.01 0.01 0.02 0.03 0.03 0.03 0.03 0.03 0.03 0.03 0.03 0.03 0.02 0.02 0.02 0.03 0.03 0.02 0.02 0.02 0.04 0.05 0.04 0.02 0.01 0.01 0.01 0.01
0.00 0.00 0.00 0.01 0.04 0.07 0.08 0.10 0.10 0.07 0.03 0.03 0.03 0.03 0.06 0.04 0.01 0.02 0.02 0.01 0.01 0.01 0.01 0.02 0.03 0.04 0.04 0.04 0.04 0.04 0.04 0.04 0.04 0.04 0.04 0.04 0.04 0.04 0.04 0.04 0.03 0.04 0.06 0.06 0.05 0.03 0.02 0.02 0.02
0.00 0.00 0.00 0.00 0.02 0.05 0.04 0.05 0.08 0.07 0.05 0.03 0.05 0.06 0.12 0.07 0.02 0.02 0.03 0.02 0.02 0.02 0.02 0.02 0.04 0.05 0.06 0.05 0.06 0.06 0.05 0.05 0.05 0.05 0.05 0.05 0.06 0.06 0.07 0.07 0.07 0.07 0.09 0.09 0.09 0.08 0.07 0.08 0.08
0.00 0.00 0.00 0.00 0.00 0.02 0.02 0.04 0.06 0.07 0.07 0.06 0.10 0.14 0.08 0.06 0.03 0.03 0.04 0.04 0.03 0.02 0.02 0.02 0.03 0.05 0.05 0.05 0.05 0.06 0.07 0.08 0.07 0.08 0.07 0.08 0.09 0.14 0.19 0.22 0.26 0.24 0.25 0.24 0.21 0.22 0.22 0.20 0.13
0.00 0.00 0.00 0.00 0.00 0.01 0.01 0.02 0.03 0.05 0.07 0.13 0.25 0.28 0.12 0.07 0.06 0.04 0.04 0.08 0.06 0.04 0.04 0.04 0.04 0.05 0.06 0.05 0.07 0.09 0.09 0.11 0.10 0.12 0.18 0.21 0.26 0.25 0.17 0.32 0.43 0.46 0.56 0.54 0.51 0.68 0.57 0.40 0.28
0.00 0.00 0.00 0.00 0.00 0.01 0.01 0.02 0.02 0.04 0.08 0.22 0.33 0.31 0.17 0.11 0.11 0.07 0.07 0.12 0.09 0.08 0.06 0.07 0.08 0.10 0.10 0.10 0.09 0.10 0.12 0.22 0.21 0.21 0.30 0.45 0.46 0.35 0.24 0.30 0.50 0.71 0.91 0.85 0.96 1.14 0.82 0.74 0.80
0.00 0.00 0.00 0.00 0.00 0.01 0.01 0.02 0.03 0.03 0.04 0.13 0.36 0.35 0.16 0.13 0.10 0.11 0.15 0.18 0.17 0.15 0.16 0.20 0.19 0.21 0.22 0.24 0.25 0.24 0.28 0.37 0.40 0.51 0.57 0.74 0.77 0.67 0.57 0.57 0.64 0.86 1.05 1.35 1.40 1.33 1.26 1.23 1.15
0.00 0.00 0.00 0.00 0.00 0.00 0.00 0.01 0.02 0.03 0.03 0.04 0.13 0.20 0.13 0.10 0.14 0.18 0.24 0.27 0.30 0.32 0.44 0.52 0.49 0.52 0.59 0.63 0.64 0.54 0.57 0.59 0.63 0.76 0.85 1.08 1.24 1.18 1.16 1.09 1.03 0.95 1.10 1.40 1.60 1.57 1.62 1.59 1.50
0.00 0.00 0.00 0.00 0.00 0.00 0.01 0.02 0.04 0.05 0.04 0.04 0.08 0.15 0.18 0.18 0.23 0.29 0.35 0.41 0.46 0.55 0.74 0.89 0.97 1.11 1.12 1.05 1.05 1.03 0.86 0.78 0.79 0.95 1.10 1.31 1.49 1.68 1.75 1.64 1.48 1.20 1.19 1.27 1.55 1.68 1.87 1.78 1.64
0.00 0.00 0.00 0.01 0.01 0.02 0.02 0.05 0.07 0.08 0.08 0.08 0.09 0.11 0.17 0.28 0.35 0.39 0.47 0.56 0.72 0.92 1.10 1.27 1.47 1.65 1.63 1.50 1.37 1.23 1.11 1.08 1.19 1.30 1.35 1.55 1.76 1.93 1.93 1.68 1.37 1.21 1.34 1.42 1.35 1.37 1.66 1.48 1.35
0.00 0.00 0.01 0.02 0.02 0.03 0.04 0.10 0.11 0.11 0.13 0.12 0.12 0.14 0.17 0.24 0.32 0.38 0.49 0.70 1.01 1.24 1.37 1.59 1.75 1.88 1.94 1.88 1.84 1.62 1.44 1.46 1.45 1.43 1.43 1.53 1.71 1.74 1.74 1.38 1.03 1.14 1.37 1.45 1.39 1.33 1.41 1.38 1.44
0.00 0.00 0.01 0.04 0.04 0.04 0.06 0.14 0.14 0.16 0.16 0.16 0.16 0.19 0.23 0.27 0.35 0.44 0.60 0.94 1.33 1.63 1.93 2.18 2.30 2.21 2.24 2.23 2.20 2.04 1.84 1.63 1.46 1.45 1.41 1.32 1.27 1.32 1.40 1.10 0.94 1.11 1.26 1.28 1.25 1.37 1.46 1.34 1.41
0.03 0.04 0.06 0.09 0.08 0.08 0.15 0.20 0.21 0.21 0.22 0.23 0.23 0.24 0.27 0.31 0.43 0.59 0.83 1.19 1.57 1.94 2.41 2.74 2.76 2.56 2.29 2.06 1.80 1.75 1.67 1.59 1.48 1.40 1.28 1.15 1.06 1.08 1.24 1.12 1.00 1.13 1.21 1.14 1.28 1.38 1.46 1.26 1.23
0.04 0.05 0.10 0.12 0.09 0.10 0.22 0.32 0.36 0.35 0.41 0.38 0.34 0.32 0.30 0.38 0.55 0.76 1.06 1.39 1.73 2.11 2.58 2.78 2.73 2.27 1.79 1.60 1.41 1.31 1.20 1.17 1.22 1.23 1.18 1.13 1.04 1.03 1.17 1.07 0.98 0.97 0.99 0.95 1.10 1.21 1.20 0.99 1.20
0.07 0.08 0.13 0.15 0.09 0.09 0.22 0.45 0.56 0.58 0.46 0.40 0.33 0.36 0.36 0.49 0.73 1.10 1.52 1.74 1.70 1.97 2.46 2.50 2.04 1.57 1.28 1.13 1.01 0.90 0.88 0.87 0.86 0.83 0.81 0.80 0.82 0.86 0.94 0.91 0.82 0.78 0.80 0.79 0.87 1.00 1.00 0.88 1.16
0.10 0.10 0.13 0.13 0.11 0.15 0.27 0.51 0.73 0.67 0.43 0.32 0.28 0.29 0.36 0.56 0.86 1.19 1.54 1.62 1.51 1.73 1.77 1.47 1.17 0.91 0.72 0.62 0.57 0.60 0.58 0.57 0.52 0.46 0.46 0.52 0.58 0.59 0.59 0.60 0.64 0.68 0.69 0.70 0.76 0.91 1.03 0.90 0.93
0.06 0.06 0.06 0.05 0.08 0.17 0.31 0.60 0.88 0.77 0.52 0.39 0.33 0.35 0.37 0.40 0.53 0.77 0.96 1.08 1.15 1.16 1.00 0.82 0.71 0.60 0.54 0.54 0.48 0.53 0.48 0.43 0.39 0.34 0.34 0.39 0.42 0.42 0.41 0.43 0.53 0.60 0.66 0.70 0.65 0.70 0.86 0.91 0.83
0.04 0.03 0.04 0.05 0.06 0.12 0.28 0.54 0.82 0.87 0.75 0.57 0.45 0.42 0.34 0.27 0.31 0.42 0.47 0.53 0.60 0.62 0.57 0.47 0.55 0.61 0.56 0.53 0.47 0.43 0.37 0.32 0.29 0.31 0.34 0.39 0.42 0.41 0.38 0.37 0.39 0.49 0.57 0.64 0.66 0.68 0.73 0.80 0.78
0.03 0.04 0.07 0.12 0.15 0.33 0.36 0.44 0.70 0.72 0.71 0.64 0.49 0.35 0.25 0.22 0.26 0.30 0.29 0.25 0.25 0.27 0.27 0.27 0.34 0.44 0.43 0.42 0.41 0.38 0.35 0.33 0.30 0.29 0.30 0.32 0.36 0.38 0.38 0.38 0.40 0.42 0.43 0.46 0.53 0.59 0.64 0.69 0.72
0.04 0.05 0.14 0.33 0.47 0.56 0.37 0.43 0.66 0.59 0.65 0.68 0.45 0.25 0.18 0.17 0.18 0.21 0.22 0.18 0.16 0.15 0.14 0.13 0.15 0.25 0.28 0.29 0.33 0.32 0.32 0.31 0.29 0.26 0.25 0.26 0.26 0.31 0.35 0.37 0.41 0.47 0.47 0.48 0.49 0.55 0.62 0.68 0.73
0.04 0.04 0.07 0.10 0.15 0.26 0.33 0.72 0.75 0.47 0.49 0.40 0.21 0.11 0.09 0.09 0.09 0.11 0.11 0.11 0.09 0.08 0.07 0.06 0.06 0.08 0.10 0.13 0.18 0.19 0.22 0.24 0.25 0.31 0.29 0.25 0.24 0.27 0.34 0.39 0.42 0.45 0.51 0.53 0.60 0.63 0.68 0.73 0.76
0.04 0.03 0.03 0.04 0.05 0.14 0.35 0.64 0.52 0.31 0.32 0.20 0.11 0.05 0.04 0.05 0.05 0.05 0.05 0.05 0.04 0.04 0.04 0.04 0.04 0.04 0.05 0.05 0.08 0.10 0.14 0.18 0.24 0.30 0.28 0.24 0.24 0.23 0.24 0.31 0.42 0.44 0.46 0.54 0.63 0.68 0.72 0.78 0.83
0.04 0.03 0.03 0.03 0.04 0.07 0.22 0.49 0.52 0.38 0.31 0.17 0.08 0.04 0.03 0.03 0.03 0.03 0.03 0.03 0.03 0.02 0.02 0.02 0.03 0.03 0.03 0.03 0.03 0.05 0.11 0.19 0.26 0.30 0.26 0.23 0.21 0.20 0.20 0.24 0.32 0.35 0.38 0.47 0.60 0.68 0.75 0.86 0.94
0.05 0.04 0.04 0.04 0.05 0.06 0.11 0.25 0.24 0.25 0.20 0.11 0.06 0.04 0.01 0.01 0.01 0.01 0.01 0.01 0.01 0.01 0.01 0.02 0.02 0.02 0.02 0.02 0.03 0.07 0.16 0.21 0.27 0.42 0.40 0.25 0.19 0.17 0.16 0.17 0.19 0.20 0.23 0.32 0.48 0.68 0.80 0.91 0.96
0.05 0.05 0.04 0.05 0.05 0.04 0.06 0.14 0.10 0.11 0.09 0.06 0.04 0.02 0.01 0.01 0.00 0.00 0.00 0.01 0.01 0.01 0.01 0.01 0.02 0.02 0.02 0.02 0.02 0.05 0.15 0.20 0.23 0.30 0.33 0.26 0.21 0.18 0.15 0.14 0.13 0.12 0.15 0.24 0.40 0.57 0.73 0.87 0.99

GEFSSGP_prec_meanprecacc_078.txt.gz
Total_Precipitation_Accumulation
0.00 0.01 0.05 0.12 0.26 0.44 0.51 0.21 0.07 0.03 0.02 0.02 0.03 0.03 0.05 0.09 0.16 0.25 0.09 0.02 0.01 0.00 0.01 0.01 0.01 0.01 0.01 0.02 0.03 0.05 0.06 0.07 0.06 0.06 0.05 0.03 0.01 0.01 0.01 0.01 0.01 0.01 0.02 0.02 0.01 0.01 0.01 0.01 0.01
0.00 0.01 0.04 0.11 0.31 0.84 0.77 0.24 0.07 0.03 0.02 0.02 0.04 0.05 0.03 0.04 0.03 0.03 0.02 0.01 0.00 0.00 0.01 0.01 0.01 0.01 0.01 0.02 0.03 0.05 0.06 0.06 0.06 0.05 0.04 0.03 0.02 0.01 0.01 0.01 0.01 0.02 0.02 0.01 0.01 0.01 0.01 0.01 0.00
0.00 0.00 0.03 0.07 0.24 0.50 0.49 0.19 0.05 0.02 0.03 0.03 0.04 0.03 0.02 0.03 0.03 0.02 0.01 0.00 0.00 0.00 0.00 0.01 0.01 0.01 0.01 0.01 0.02 0.04 0.05 0.05 0.05 0.05 0.04 0.03 0.02 0.02 0.01 0.01 0.02 0.03 0.03 0.02 0.01 0.01 0.01 0.00 0.01
0.00 0.00 0.01 0.02 0.11 0.19 0.15 0.10 0.06 0.03 0.02 0.02 0.02 0.02 0.01 0.01 0.02 0.01 0.00 0.00 0.00 0.01 0.00 0.01 0.02 0.02 0.02 0.01 0.02 0.02 0.03 0.04 0.04 0.04 0.03 0.03 0.03 0.03 0.02 0.02 0.02 0.03 0.03 0.02 0.01 0.01 0.01 0.00 0.00
0.00 0.00 0.00 0.02 0.08 0.14 0.15 0.13 0.07 0.05 0.04 0.06 0.05 0.07 0.07 0.02 0.01 0.01 0.00 0.00 0.00 0.01 0.01 0.01 0.02 0.03 0.02 0.02 0.02 0.02 0.03 0.03 0.04 0.04 0.03 0.03 0.03 0.03 0.03 0.02 0.02 0.03 0.04 0.03 0.02 0.01 0.01 0.01 0.00
0.00 0.00 0.00 0.02 0.06 0.11 0.16 0.13 0.09 0.09 0.09 0.14 0.07 0.08 0.08 0.02 0.01 0.01 0.01 0.00 0.00 0.01 0.01 0.02 0.03 0.03 0.03 0.03 0.04 0.04 0.04 0.04 0.04 0.04 0.04 0.04 0.04 0.03 0.03 0.02 0.02 0.05 0.06 0.04 0.03 0.02 0.02 0.01 0.01
0.00 0.00 0.00 0.01 0.04 0.07 0.09 0.12 0.11 0.12 0.14 0.10 0.05 0.06 0.12 0.07 0.01 0.02 0.02 0.01 0.01 0.01 0.01 0.03 0.04 0.04 0.04 0.05 0.05 0.05 0.05 0.06 0.06 0.05 0.05 0.05 0.05 0.05 0.05 0.04 0.04 0.05 0.07 0.08 0.06 0.04 0.03 0.03 0.03
0.00 0.00 0.00 0.00 0.02 0.05 0.05 0.07 0.09 0.10 0.13 0.09 0.06 0.09 0.28 0.14 0.02 0.02 0.03 0.02 0.02 0.02 0.02 0.03 0.06 0.08 0.08 0.07 0.08 0.08 0.08 0.08 0.07 0.08 0.08 0.08 0.08 0.08 0.09 0.08 0.09 0.09 0.11 0.12 0.12 0.10 0.09 0.10 0.10
0.00 0.00 0.00 0.00 0.01 0.02 0.05 0.08 0.08 0.07 0.09 0.10 0.13 0.16 0.16 0.09 0.03 0.03 0.04 0.04 0.03 0.03 0.03 0.03 0.04 0.07 0.08 0.09 0.09 0.09 0.10 0.11 0.10 0.11 0.11 0.11 0.14 0.24 0.30 0.31 0.33 0.30 0.30 0.28 0.26 0.26 0.26 0.24 0.16
0.00 0.00 0.00 0.00 0.00 0.02 0.04 0.10 0.12 0.08 0.11 0.24 0.40 0.33 0.15 0.10 0.06 0.04 0.04 0.08 0.07 0.05 0.04 0.04 0.05 0.07 0.07 0.07 0.13 0.14 0.16 0.19 0.15 0.21 0.28 0.31 0.38 0.38 0.30 0.49 0.55 0.56 0.64 0.60 0.58 0.75 0.64 0.46 0.36
0.00 0.00 0.00 0.00 0.00 0.02 0.05 0.09 0.09 0.12 0.28 0.55 0.61 0.42 0.20 0.11 0.11 0.07 0.07 0.13 0.10 0.08 0.07 0.07 0.09 0.11 0.12 0.13 0.13 0.16 0.20 0.34 0.30 0.32 0.44 0.60 0.59 0.46 0.36 0.47 0.69 0.86 1.04 1.01 1.12 1.27 0.92 0.87 0.94
0.00 0.00 0.00 0.00 0.01 0.02 0.02 0.04 0.08 0.15 0.41 0.54 0.55 0.46 0.19 0.13 0.10 0.12 0.16 0.19 0.17 0.16 0.17 0.21 0.21 0.24 0.25 0.28 0.30 0.30 0.34 0.47 0.52 0.67 0.72 0.90 0.92 0.80 0.70 0.71 0.81 1.05 1.23 1.56 1.62 1.52 1.42 1.39 1.31
0.00 0.00 0.00 0.00 0.01 0.04 0.02 0.05 0.15 0.22 0.26 0.23 0.19 0.26 0.15 0.11 0.16 0.21 0.25 0.28 0.31 0.34 0.46 0.54 0.51 0.56 0.64 0.71 0.73 0.63 0.67 0.73 0.78 0.96 1.04 1.23 1.41 1.37 1.34 1.25 1.18 1.10 1.28 1.60 1.82 1.77 1.81 1.77 1.66
0.00 0.00 0.00 0.00 0.01 0.02 0.05 0.11 0.21 0.29 0.14 0.10 0.14 0.20 0.22 0.21 0.32 0.43 0.39 0.43 0.49 0.58 0.77 0.92 1.00 1.16 1.19 1.15 1.16 1.13 0.94 0.91 0.92 1.09 1.23 1.45 1.66 1.87 1.94 1.82 1.67 1.40 1.38 1.48 1.81 1.93 2.07 1.96 1.81
0.00 0.01 0.03 0.04 0.04 0.03 0.05 0.23 0.28 0.25 0.15 0.14 0.15 0.15 0.21 0.32 0.41 0.46 0.51 0.58 0.74 0.96 1.15 1.32 1.50 1.69 1.68 1.58 1.47 1.32 1.19 1.18 1.31 1.42 1.43 1.65 1.88 2.06 2.07 1.82 1.52 1.36 1.48 1.56 1.51 1.52 1.81 1.60 1.47
0.00 0.03 0.11 0.11 0.06 0.05 0.09 0.42 0.46 0.29 0.22 0.22 0.26 0.21 0.23 0.29 0.36 0.42 0.55 0.74 1.04 1.30 1.44 1.64 1.78 1.92 1.99 1.95 1.91 1.69 1.52 1.58 1.55 1.49 1.47 1.57 1.77 1.82 1.84 1.48 1.14 1.24 1.46 1.54 1.48 1.42 1.50 1.48 1.53
0.01 0.03 0.09 0.15 0.09 0.06 0.13 0.59 0.58 0.33 0.29 0.27 0.25 0.26 0.29 0.34 0.41 0.49 0.67 1.00 1.39 1.69 1.98 2.22 2.35 2.26 2.29 2.28 2.24 2.08 1.88 1.67 1.49 1.49 1.44 1.35 1.31 1.36 1.44 1.15 1.02 1.18 1.32 1.34 1.30 1.43 1.52 1.40 1.47
0.04 0.05 0.10 0.15 0.10 0.09 0.20 0.48 0.50 0.38 0.35 0.35 0.31 0.28 0.31 0.38 0.51 0.65 0.89 1.26 1.64 2.00 2.45 2.79 2.80 2.59 2.32 2.09 1.83 1.78 1.69 1.60 1.50 1.42 1.31 1.16 1.07 1.09 1.26 1.14 1.03 1.16 1.23 1.18 1.32 1.43 1.51 1.31 1.29
0.04 0.06 0.13 0.17 0.12 0.11 0.25 0.42 0.50 0.46 0.50 0.48 0.47 0.40 0.35 0.45 0.61 0.82 1.11 1.43 1.79 2.16 2.62 2.81 2.76 2.29 1.81 1.62 1.44 1.34 1.22 1.18 1.24 1.24 1.19 1.15 1.05 1.04 1.18 1.09 1.00 0.99 1.00 0.97 1.12 1.24 1.24 1.03 1.23
0.08 0.09 0.16 0.17 0.10 0.10 0.24 0.50 0.63 0.64 0.52 0.47 0.44 0.47 0.43 0.57 0.82 1.16 1.56 1.76 1.72 1.99 2.49 2.53 2.05 1.58 1.30 1.15 1.03 0.92 0.89 0.88 0.87 0.84 0.82 0.81 0.82 0.87 0.95 0.93 0.84 0.79 0.82 0.81 0.89 1.02 1.02 0.90 1.17
0.11 0.12 0.15 0.13 0.11 0.16 0.30 0.60 0.81 0.72 0.47 0.36 0.33 0.34 0.44 0.65 0.94 1.23 1.56 1.66 1.54 1.76 1.79 1.48 1.18 0.92 0.73 0.63 0.59 0.62 0.59 0.58 0.53 0.48 0.47 0.53 0.58 0.59 0.59 0.60 0.64 0.68 0.69 0.71 0.77 0.93 1.05 0.91 0.94
0.07 0.06 0.06 0.05 0.10 0.22 0.34 0.77 1.03 0.84 0.57 0.43 0.36 0.38 0.41 0.45 0.56 0.78 0.98 1.09 1.16 1.17 1.01 0.83 0.72 0.60 0.55 0.55 0.50 0.55 0.50 0.45 0.41 0.35 0.36 0.40 0.42 0.42 0.41 0.43 0.53 0.60 0.66 0.71 0.66 0.71 0.87 0.92 0.84
0.04 0.03 0.04 0.06 0.08 0.16 0.33 0.60 0.90 0.93 0.80 0.61 0.48 0.44 0.35 0.29 0.32 0.43 0.48 0.54 0.61 0.62 0.57 0.48 0.56 0.63 0.58 0.55 0.49 0.45 0.38 0.33 0.29 0.32 0.36 0.41 0.42 0.41 0.38 0.37 0.39 0.49 0.57 0.64 0.66 0.68 0.74 0.81 0.79
0.03 0.04 0.10 0.19 0.25 0.43 0.40 0.47 0.76 0.77 0.74 0.67 0.50 0.36 0.26 0.22 0.26 0.31 0.29 0.26 0.26 0.27 0.27 0.27 0.37 0.47 0.45 0.44 0.42 0.40 0.37 0.35 0.31 0.30 0.31 0.33 0.36 0.38 0.38 0.38 0.40 0.42 0.43 0.47 0.54 0.60 0.65 0.71 0.73
0.04 0.07 0.25 0.52 0.68 0.68 0.40 0.44 0.68 0.61 0.66 0.68 0.45 0.25 0.18 0.17 0.18 0.22 0.22 0.18 0.16 0.15 0.14 0.13 0.18 0.27 0.29 0.31 0.34 0.34 0.34 0.32 0.30 0.26 0.25 0.26 0.26 0.31 0.35 0.37 0.42 0.47 0.48 0.48 0.50 0.56 0.63 0.69 0.75
0.05 0.05 0.12 0.17 0.24 0.31 0.34 0.72 0.75 0.47 0.49 0.40 0.21 0.11 0.09 0.09 0.09 0.11 0.11 0.11 0.09 0.08 0.07 0.06 0.06 0.09 0.10 0.13 0.18 0.19 0.23 0.24 0.25 0.32 0.30 0.25 0.24 0.27 0.34 0.39 0.42 0.45 0.51 0.54 0.61 0.64 0.69 0.75 0.77
0.04 0.03 0.03 0.04 0.06 0.17 0.37 0.64 0.53 0.31 0.32 0.20 0.11 0.05 0.04 0.05 0.05 0.05 0.05 0.05 0.04 0.04 0.04 0.04 0.04 0.05 0.05 0.05 0.08 0.10 0.14 0.18 0.24 0.30 0.29 0.25 0.24 0.23 0.24 0.31 0.42 0.44 0.47 0.55 0.64 0.69 0.73 0.79 0.85
0.04 0.03 0.03 0.03 0.05 0.09 0.25 0.51 0.53 0.38 0.31 0.17 0.08 0.04 0.03 0.03 0.03 0.03 0.03 0.03 0.03 0.02 0.02 0.03 0.03 0.03 0.03 0.03 0.03 0.06 0.11 0.19 0.26 0.30 0.26 0.23 0.21 0.20 0.20 0.24 0.32 0.36 0.39 0.48 0.62 0.69 0.76 0.88 0.96
0.05 0.04 0.04 0.04 0.05 0.06 0.16 0.30 0.25 0.25 0.20 0.11 0.06 0.04 0.01 0.01 0.01 0.01 0.01 0.01 0.01 0.01 0.02 0.02 0.02 0.02 0.02 0.02 0.03 0.07 0.17 0.21 0.27 0.42 0.40 0.25 0.19 0.18 0.17 0.18 0.19 0.21 0.24 0.33 0.50 0.70 0.82 0.93 0.98
0.05 0.05 0.04 0.05 0.05 0.04 0.07 0.16 0.11 0.11 0.09 0.06 0.04 0.02 0.01 0.01 0.00 0.00 0.00 0.01 0.01 0.01 0.01 0.01 0.02 0.02 0.02 0.02 0.02 0.05 0.15 0.20 0.23 0.31 0.34 0.26 0.21 0.18 0.16 0.15 0.14 0.13 0.16 0.25 0.42 0.59 0.75 0.90 1.01

GEFSSGP_prec_meanprecacc_084.txt.gz
Total_Precipitation_Accumulation
0.00 0.01 0.06 0.15 0.32 0.57 0.71 0.44 0.34 0.23 0.16 0.21 0.17 0.13 0.12 0.18 0.25 0.33 0.12 0.04 0.01 0.00 0.01 0.02 0.02 0.01 0.01 0.02 0.04 0.06 0.07 0.09 0.08 0.07 0.06 0.03 0.02 0.01 0.01 0.02 0.02 0.02 0.02 0.02 0.01 0.01 0.01 0.01 0.01
0.00 0.01 0.05 0.14 0.40 1.01 1.03 0.49 0.27 0.14 0.16 0.27 0.31 0.24 0.09 0.07 0.06 0.05 0.06 0.04 0.01 0.00 0.01 0.01 0.01 0.01 0.01 0.02 0.04 0.06 0.07 0.08 0.07 0.07 0.05 0.04 0.03 0.02 0.02 0.02 0.01 0.02 0.03 0.02 0.01 0.01 0.01 0.01 0.01
0.00 0.01 0.04 0.11 0.33 0.70 0.75 0.40 0.17 0.12 0.18 0.30 0.30 0.19 0.08 0.07 0.05 0.05 0.05 0.02 0.01 0.00 0.00 0.01 0.02 0.01 0.02 0.02 0.03 0.04 0.06 0.07 0.06 0.06 0.05 0.03 0.03 0.03 0.02 0.02 0.02 0.03 0.03 0.02 0.01 0.01 0.01 0.00 0.01
0.00 0.01 0.02 0.06 0.17 0.30 0.29 0.23 0.17 0.16 0.23 0.23 0.29 0.22 0.09 0.09 0.07 0.06 0.05 0.03 0.01 0.01 0.00 0.01 0.02 0.02 0.02 0.01 0.02 0.03 0.04 0.05 0.05 0.04 0.04 0.03 0.03 0.03 0.02 0.02 0.03 0.03 0.03 0.02 0.01 0.01 0.01 0.00 0.00
0.00 0.00 0.01 0.04 0.12 0.20 0.22 0.23 0.22 0.21 0.24 0.33 0.38 0.29 0.16 0.14 0.09 0.10 0.13 0.05 0.01 0.01 0.01 0.01 0.03 0.03 0.02 0.02 0.02 0.03 0.03 0.04 0.05 0.05 0.04 0.03 0.03 0.04 0.03 0.03 0.03 0.04 0.04 0.03 0.02 0.01 0.01 0.01 0.00
0.00 0.00 0.01 0.03 0.08 0.14 0.21 0.21 0.23 0.25 0.31 0.47 0.39 0.28 0.23 0.18 0.16 0.13 0.10 0.04 0.02 0.01 0.01 0.02 0.03 0.03 0.03 0.04 0.04 0.04 0.04 0.05 0.05 0.05 0.05 0.04 0.04 0.04 0.04 0.03 0.03 0.05 0.06 0.05 0.03 0.02 0.02 0.02 0.01
0.00 0.00 0.00 0.02 0.05 0.09 0.12 0.20 0.29 0.31 0.42 0.48 0.32 0.26 0.32 0.35 0.25 0.15 0.08 0.05 0.03 0.02 0.01 0.03 0.04 0.04 0.05 0.05 0.05 0.05 0.06 0.07 0.07 0.06 0.06 0.05 0.05 0.06 0.06 0.05 0.05 0.06 0.08 0.09 0.07 0.04 0.03 0.03 0.03
0.00 0.00 0.00 0.00 0.02 0.06 0.07 0.12 0.21 0.28 0.41 0.40 0.33 0.36 0.53 0.42 0.16 0.13 0.11 0.06 0.04 0.04 0.02 0.03 0.06 0.08 0.08 0.07 0.08 0.08 0.09 0.08 0.08 0.08 0.09 0.09 0.09 0.10 0.12 0.11 0.11 0.11 0.13 0.14 0.13 0.11 0.10 0.11 0.11
0.00 0.00 0.00 0.00 0.01 0.03 0.06 0.13 0.19 0.27 0.35 0.40 0.51 0.57 0.48 0.34 0.17 0.15 0.15 0.11 0.07 0.06 0.04 0.03 0.05 0.08 0.09 0.09 0.09 0.10 0.10 0.11 0.11 0.12 0.12 0.13 0.16 0.28 0.36 0.38 0.41 0.36 0.35 0.32 0.28 0.28 0.28 0.25 0.18
0.00 0.00 0.00 0.00 0.00 0.02 0.05 0.14 0.27 0.34 0.42 0.57 0.85 0.85 0.50 0.36 0.25 0.20 0.18 0.17 0.11 0.07 0.05 0.05 0.05 0.07 0.08 0.08 0.14 0.15 0.17 0.21 0.18 0.24 0.32 0.35 0.43 0.44 0.38 0.59 0.67 0.67 0.73 0.67 0.63 0.79 0.67 0.48 0.38
0.00 0.00 0.00 0.00 0.00 0.02 0.06 0.12 0.18 0.31 0.60 0.98 1.06 0.85 0.56 0.45 0.35 0.27 0.32 0.27 0.17 0.12 0.09 0.10 0.11 0.13 0.15 0.16 0.17 0.20 0.26 0.40 0.36 0.38 0.51 0.67 0.66 0.53 0.42 0.54 0.82 0.98 1.12 1.07 1.18 1.33 0.97 0.90 0.97
0.00 0.00 0.00 0.00 0.01 0.02 0.03 0.05 0.12 0.32 0.76 0.87 0.80 0.64 0.56 0.56 0.39 0.39 0.49 0.36 0.29 0.24 0.24 0.28 0.29 0.33 0.31 0.33 0.35 0.35 0.41 0.55 0.63 0.79 0.85 1.00 1.01 0.87 0.76 0.78 0.89 1.11 1.28 1.61 1.68 1.57 1.48 1.44 1.34
0.00 0.00 0.00 0.00 0.01 0.05 0.03 0.07 0.22 0.49 0.68 0.53 0.37 0.47 0.48 0.62 0.62 0.64 0.60 0.47 0.44 0.45 0.54 0.62 0.58 0.65 0.72 0.74 0.76 0.67 0.73 0.82 0.91 1.09 1.24 1.36 1.50 1.44 1.39 1.30 1.24 1.16 1.33 1.66 1.88 1.82 1.85 1.82 1.71
0.00 0.00 0.00 0.00 0.01 0.03 0.06 0.14 0.32 0.52 0.47 0.40 0.46 0.65 0.75 0.64 0.81 0.93 0.70 0.64 0.63 0.68 0.86 1.00 1.06 1.21 1.23 1.18 1.19 1.17 1.01 1.01 1.04 1.18 1.31 1.51 1.72 1.92 1.99 1.87 1.71 1.44 1.42 1.53 1.86 1.99 2.12 1.99 1.84
0.00 0.01 0.03 0.04 0.04 0.04 0.07 0.30 0.43 0.49 0.38 0.40 0.54 0.61 0.74 0.71 0.80 0.85 0.79 0.82 0.89 1.07 1.24 1.40 1.57 1.74 1.72 1.61 1.49 1.34 1.24 1.24 1.37 1.47 1.48 1.70 1.94 2.12 2.12 1.86 1.55 1.39 1.51 1.59 1.55 1.59 1.88 1.65 1.51
0.01 0.04 0.12 0.13 0.07 0.06 0.12 0.50 0.62 0.54 0.62 0.66 0.77 0.70 0.71 0.72 0.70 0.70 0.83 1.09 1.22 1.41 1.53 1.71 1.81 1.95 2.02 1.98 1.93 1.71 1.55 1.61 1.58 1.51 1.50 1.61 1.82 1.86 1.87 1.51 1.16 1.25 1.47 1.55 1.50 1.45 1.54 1.52 1.57
0.02 0.05 0.11 0.17 0.11 0.09 0.18 0.70 0.73 0.50 0.68 0.87 0.76 0.75 0.76 0.76 0.74 0.74 0.92 1.25 1.52 1.78 2.06 2.29 2.41 2.30 2.31 2.30 2.26 2.09 1.90 1.69 1.51 1.50 1.46 1.39 1.34 1.38 1.45 1.15 1.03 1.19 1.33 1.35 1.32 1.45 1.55 1.44 1.50
0.05 0.07 0.12 0.18 0.13 0.12 0.24 0.54 0.61 0.59 0.68 0.76 0.69 0.65 0.66 0.70 0.82 0.89 1.05 1.38 1.73 2.08 2.51 2.83 2.84 2.62 2.34 2.10 1.84 1.79 1.69 1.61 1.50 1.43 1.31 1.17 1.07 1.09 1.26 1.14 1.03 1.16 1.24 1.19 1.33 1.45 1.53 1.33 1.30
0.05 0.08 0.16 0.20 0.14 0.15 0.29 0.46 0.57 0.62 0.80 0.86 0.78 0.69 0.64 0.78 0.90 1.03 1.28 1.53 1.86 2.21 2.66 2.85 2.80 2.32 1.83 1.63 1.44 1.34 1.22 1.18 1.24 1.24 1.19 1.15 1.05 1.04 1.18 1.09 1.00 0.99 1.01 0.98 1.12 1.24 1.24 1.03 1.24
0.08 0.11 0.18 0.19 0.12 0.14 0.30 0.55 0.69 0.72 0.68 0.72 0.65 0.65 0.63 0.87 1.08 1.34 1.74 1.88 1.78 2.03 2.51 2.54 2.06 1.59 1.30 1.15 1.04 0.92 0.89 0.88 0.87 0.84 0.82 0.81 0.82 0.87 0.95 0.93 0.84 0.79 0.82 0.81 0.89 1.02 1.02 0.90 1.17
0.11 0.13 0.16 0.15 0.13 0.19 0.35 0.65 0.86 0.79 0.55 0.48 0.50 0.50 0.58 0.84 1.15 1.36 1.67 1.71 1.57 1.77 1.79 1.48 1.18 0.92 0.73 0.63 0.59 0.62 0.59 0.59 0.53 0.48 0.48 0.53 0.58 0.59 0.59 0.60 0.64 0.68 0.69 0.71 0.77 0.93 1.05 0.91 0.94
0.08 0.07 0.06 0.06 0.12 0.25 0.38 0.83 1.10 0.91 0.64 0.52 0.49 0.52 0.54 0.55 0.66 0.86 1.03 1.12 1.18 1.18 1.01 0.83 0.73 0.61 0.55 0.55 0.50 0.56 0.50 0.45 0.41 0.35 0.36 0.40 0.42 0.42 0.41 0.43 0.53 0.60 0.66 0.71 0.66 0.71 0.87 0.92 0.84
0.04 0.04 0.04 0.07 0.11 0.23 0.39 0.66 0.96 0.98 0.85 0.70 0.58 0.53 0.45 0.37 0.36 0.45 0.51 0.56 0.62 0.63 0.58 0.49 0.56 0.63 0.59 0.55 0.49 0.45 0.38 0.33 0.30 0.32 0.36 0.41 0.42 0.41 0.38 0.37 0.39 0.49 0.57 0.64 0.66 0.68 0.74 0.81 0.79
0.04 0.05 0.11 0.22 0.31 0.51 0.46 0.52 0.81 0.80 0.77 0.73 0.57 0.42 0.32 0.27 0.29 0.32 0.31 0.27 0.26 0.27 0.27 0.28 0.37 0.48 0.45 0.44 0.42 0.40 0.37 0.35 0.31 0.30 0.31 0.33 0.36 0.38 0.38 0.38 0.40 0.42 0.43 0.47 0.54 0.60 0.65 0.71 0.74
0.05 0.08 0.28 0.58 0.76 0.78 0.45 0.48 0.70 0.62 0.66 0.70 0.49 0.28 0.22 0.21 0.21 0.23 0.24 0.20 0.17 0.15 0.14 0.14 0.18 0.28 0.30 0.31 0.35 0.34 0.34 0.32 0.30 0.26 0.25 0.26 0.26 0.31 0.35 0.37 0.42 0.47 0.48 0.48 0.50 0.56 0.63 0.69 0.75
0.05 0.06 0.14 0.21 0.30 0.40 0.43 0.82 0.79 0.47 0.49 0.41 0.22 0.12 0.11 0.19 0.16 0.13 0.13 0.12 0.10 0.08 0.07 0.06 0.07 0.09 0.11 0.14 0.18 0.20 0.23 0.24 0.25 0.32 0.30 0.25 0.24 0.27 0.34 0.39 0.42 0.45 0.51 0.54 0.61 0.64 0.69 0.75 0.78
0.04 0.04 0.04 0.06 0.10 0.27 0.51 0.77 0.56 0.32 0.32 0.20 0.11 0.05 0.05 0.06 0.08 0.06 0.06 0.05 0.05 0.04 0.04 0.04 0.04 0.05 0.06 0.06 0.08 0.10 0.14 0.18 0.24 0.30 0.29 0.25 0.24 0.23 0.24 0.31 0.42 0.44 0.47 0.55 0.64 0.69 0.73 0.79 0.85
0.04 0.04 0.03 0.04 0.07 0.17 0.36 0.62 0.58 0.38 0.31 0.17 0.08 0.04 0.03 0.03 0.03 0.03 0.03 0.03 0.03 0.02 0.02 0.03 0.03 0.03 0.03 0.03 0.03 0.06 0.11 0.19 0.26 0.30 0.26 0.23 0.21 0.20 0.20 0.24 0.32 0.36 0.39 0.48 0.62 0.69 0.77 0.88 0.96
0.06 0.06 0.05 0.05 0.07 0.09 0.22 0.36 0.28 0.26 0.20 0.12 0.06 0.04 0.02 0.01 0.01 0.01 0.01 0.01 0.01 0.01 0.02 0.02 0.02 0.02 0.02 0.02 0.03 0.07 0.17 0.21 0.27 0.42 0.40 0.25 0.19 0.18 0.17 0.18 0.19 0.21 0.24 0.33 0.50 0.70 0.82 0.93 0.98
0.07 0.06 0.05 0.06 0.07 0.06 0.10 0.18 0.12 0.14 0.10 0.07 0.05 0.02 0.01 0.01 0.00 0.00 0.00 0.01 0.01 0.01 0.01 0.01 0.02 0.02 0.02 0.02 0.02 0.05 0.15 0.20 0.23 0.31 0.34 0.26 0.21 0.18 0.16 0.15 0.14 0.13 0.16 0.25 0.42 0.59 0.75 0.90 1.01

GEFSSGP_prec_meanprecacc_090.txt.gz
Total_Precipitation_Accumulation
0.00 0.01 0.06 0.16 0.34 0.59 0.74 0.47 0.37 0.29 0.26 0.35 0.39 0.33 0.35 0.37 0.36 0.39 0.14 0.04 0.02 0.01 0.02 0.04 0.05 0.03 0.03 0.03 0.05 0.06 0.08 0.09 0.08 0.07 0.06 0.04 0.02 0.01 0.02 0.02 0.02 0.02 0.02 0.02 0.02 0.02 0.02 0.01 0.01
0.00 0.01 0.05 0.14 0.41 1.02 1.04 0.51 0.30 0.20 0.27 0.42 0.52 0.47 0.34 0.26 0.16 0.09 0.07 0.05 0.02 0.01 0.01 0.02 0.05 0.04 0.03 0.03 0.05 0.06 0.08 0.09 0.08 0.07 0.06 0.04 0.03 0.02 0.02 0.02 0.02 0.02 0.03 0.02 0.02 0.01 0.01 0.01 0.01
0.00 0.01 0.04 0.11 0.34 0.71 0.77 0.42 0.21 0.19 0.27 0.46 0.53 0.39 0.28 0.25 0.15 0.07 0.06 0.04 0.03 0.02 0.02 0.02 0.04 0.04 0.03 0.03 0.04 0.05 0.06 0.07 0.07 0.07 0.05 0.04 0.04 0.04 0.03 0.02 0.02 0.03 0.03 0.02 0.01 0.01 0.01 0.01 0.01
0.00 0.01 0.02 0.06 0.17 0.31 0.31 0.25 0.20 0.20 0.30 0.35 0.43 0.36 0.21 0.21 0.18 0.09 0.08 0.05 0.02 0.02 0.02 0.03 0.04 0.04 0.04 0.03 0.03 0.04 0.05 0.06 0.06 0.05 0.04 0.04 0.04 0.04 0.04 0.03 0.03 0.04 0.04 0.02 0.02 0.01 0.01 0.01 0.01
0.00 0.00 0.02 0.04 0.12 0.21 0.23 0.24 0.25 0.27 0.32 0.44 0.49 0.43 0.27 0.20 0.17 0.15 0.17 0.08 0.03 0.02 0.02 0.03 0.05 0.05 0.04 0.04 0.04 0.04 0.04 0.05 0.05 0.05 0.05 0.04 0.04 0.05 0.05 0.04 0.03 0.04 0.05 0.04 0.02 0.02 0.01 0.01 0.01
0.00 0.00 0.01 0.03 0.08 0.14 0.21 0.22 0.24 0.30 0.42 0.59 0.51 0.39 0.31 0.26 0.25 0.21 0.14 0.07 0.04 0.03 0.03 0.04 0.06 0.06 0.05 0.05 0.05 0.05 0.05 0.06 0.05 0.05 0.05 0.05 0.06 0.06 0.06 0.05 0.04 0.07 0.08 0.06 0.04 0.02 0.02 0.02 0.02
0.00 0.00 0.00 0.02 0.05 0.09 0.13 0.21 0.31 0.33 0.46 0.58 0.44 0.34 0.40 0.45 0.39 0.27 0.17 0.10 0.07 0.05 0.05 0.05 0.05 0.06 0.06 0.07 0.07 0.06 0.07 0.08 0.08 0.07 0.07 0.07 0.07 0.08 0.09 0.08 0.08 0.08 0.10 0.11 0.08 0.05 0.04 0.04 0.03
0.00 0.00 0.00 0.00 0.02 0.07 0.07 0.13 0.23 0.30 0.44 0.45 0.41 0.45 0.65 0.58 0.31 0.25 0.20 0.12 0.09 0.09 0.07 0.07 0.08 0.10 0.10 0.09 0.10 0.10 0.10 0.10 0.10 0.10 0.10 0.10 0.11 0.13 0.15 0.13 0.14 0.15 0.16 0.17 0.17 0.14 0.12 0.12 0.12
0.00 0.00 0.00 0.00 0.01 0.03 0.06 0.14 0.20 0.28 0.38 0.46 0.56 0.62 0.57 0.46 0.27 0.25 0.22 0.16 0.11 0.09 0.07 0.07 0.08 0.10 0.11 0.10 0.11 0.12 0.12 0.13 0.13 0.14 0.15 0.16 0.18 0.30 0.38 0.41 0.46 0.43 0.41 0.38 0.34 0.34 0.33 0.29 0.21
0.00 0.00 0.00 0.00 0.01 0.02 0.05 0.15 0.27 0.34 0.44 0.63 0.90 0.91 0.60 0.51 0.39 0.33 0.34 0.24 0.14 0.09 0.07 0.09 0.09 0.10 0.10 0.10 0.16 0.17 0.20 0.23 0.19 0.27 0.36 0.38 0.45 0.47 0.41 0.65 0.78 0.78 0.85 0.78 0.72 0.87 0.74 0.55 0.43
0.00 0.00 0.00 0.00 0.00 0.02 0.06 0.12 0.19 0.31 0.61 1.01 1.11 0.92 0.69 0.70 0.60 0.45 0.56 0.46 0.25 0.17 0.13 0.15 0.16 0.16 0.17 0.20 0.20 0.23 0.29 0.43 0.39 0.41 0.56 0.72 0.71 0.58 0.48 0.60 0.88 1.06 1.22 1.16 1.28 1.41 1.03 0.97 1.03
0.00 0.00 0.00 0.00 0.01 0.02 0.03 0.06 0.12 0.32 0.77 0.88 0.84 0.70 0.67 0.80 0.68 0.65 0.77 0.61 0.48 0.39 0.34 0.35 0.35 0.39 0.37 0.39 0.40 0.40 0.46 0.61 0.68 0.84 0.92 1.07 1.08 0.93 0.82 0.83 0.94 1.16 1.34 1.66 1.73 1.62 1.52 1.51 1.41
0.00 0.00 0.00 0.00 0.01 0.05 0.03 0.07 0.23 0.50 0.70 0.57 0.43 0.56 0.59 0.79 0.88 1.00 0.94 0.73 0.67 0.67 0.78 0.78 0.67 0.75 0.83 0.85 0.84 0.74 0.79 0.89 0.98 1.17 1.30 1.42 1.57 1.50 1.44 1.35 1.30 1.22 1.39 1.70 1.92 1.85 1.89 1.85 1.73
0.00 0.00 0.00 0.00 0.01 0.03 0.06 0.14 0.32 0.53 0.49 0.45 0.54 0.75 0.88 0.82 1.01 1.22 1.00 0.85 0.86 0.96 1.16 1.21 1.22 1.35 1.37 1.31 1.30 1.25 1.08 1.08 1.11 1.25 1.36 1.56 1.77 1.98 2.06 1.93 1.76 1.48 1.46 1.56 1.89 2.02 2.15 2.02 1.86
0.00 0.01 0.03 0.04 0.05 0.04 0.08 0.30 0.44 0.50 0.41 0.44 0.61 0.73 0.93 0.92 1.01 1.11 1.03 1.02 1.19 1.46 1.55 1.62 1.78 1.91 1.86 1.74 1.59 1.41 1.30 1.30 1.41 1.50 1.52 1.74 1.97 2.16 2.16 1.91 1.60 1.41 1.52 1.61 1.57 1.61 1.89 1.67 1.53
0.01 0.04 0.12 0.13 0.07 0.07 0.13 0.51 0.62 0.55 0.65 0.71 0.83 0.80 0.87 0.91 0.91 0.97 1.11 1.35 1.61 1.85 1.85 1.94 2.00 2.12 2.16 2.09 2.01 1.75 1.58 1.64 1.61 1.54 1.53 1.63 1.84 1.88 1.89 1.53 1.17 1.26 1.48 1.56 1.51 1.46 1.56 1.54 1.58
0.02 0.05 0.11 0.17 0.11 0.09 0.18 0.71 0.74 0.52 0.72 0.94 0.84 0.83 0.85 0.94 0.96 1.01 1.24 1.57 1.89 2.18 2.36 2.51 2.59 2.46 2.44 2.39 2.31 2.13 1.93 1.71 1.53 1.53 1.48 1.41 1.36 1.39 1.46 1.16 1.03 1.20 1.34 1.37 1.34 1.47 1.57 1.46 1.52
0.05 0.07 0.12 0.19 0.14 0.12 0.24 0.55 0.62 0.62 0.74 0.86 0.80 0.78 0.78 0.86 1.04 1.15 1.36 1.68 2.02 2.35 2.74 2.99 2.98 2.74 2.43 2.17 1.88 1.81 1.70 1.62 1.51 1.44 1.32 1.17 1.08 1.10 1.26 1.15 1.04 1.17 1.25 1.20 1.34 1.46 1.54 1.34 1.31
0.06 0.08 0.16 0.21 0.14 0.15 0.29 0.47 0.58 0.65 0.85 0.94 0.89 0.82 0.78 0.94 1.11 1.29 1.52 1.74 2.05 2.37 2.80 2.97 2.90 2.40 1.88 1.66 1.46 1.35 1.23 1.19 1.24 1.25 1.19 1.15 1.05 1.04 1.18 1.09 1.00 0.99 1.01 0.98 1.12 1.25 1.26 1.04 1.25
0.09 0.11 0.19 0.19 0.12 0.14 0.30 0.55 0.69 0.74 0.70 0.77 0.72 0.74 0.74 1.00 1.24 1.56 1.95 2.03 1.92 2.15 2.62 2.64 2.15 1.65 1.33 1.17 1.05 0.93 0.90 0.89 0.87 0.84 0.82 0.81 0.82 0.87 0.95 0.93 0.84 0.79 0.82 0.81 0.89 1.02 1.02 0.90 1.18
0.12 0.13 0.16 0.15 0.13 0.19 0.35 0.65 0.87 0.80 0.57 0.53 0.56 0.58 0.67 0.95 1.27 1.54 1.85 1.86 1.68 1.87 1.88 1.55 1.23 0.95 0.74 0.64 0.60 0.63 0.60 0.59 0.53 0.48 0.48 0.53 0.58 0.59 0.59 0.60 0.64 0.68 0.69 0.71 0.77 0.93 1.05 0.91 0.94
0.08 0.07 0.07 0.06 0.12 0.26 0.38 0.83 1.10 0.91 0.65 0.54 0.52 0.58 0.62 0.64 0.76 0.98 1.14 1.21 1.26 1.25 1.08 0.88 0.76 0.63 0.56 0.56 0.51 0.56 0.50 0.45 0.41 0.35 0.36 0.40 0.42 0.42 0.41 0.43 0.53 0.60 0.66 0.71 0.66 0.71 0.87 0.92 0.84
0.05 0.04 0.04 0.08 0.11 0.23 0.39 0.66 0.97 0.98 0.86 0.71 0.59 0.58 0.51 0.42 0.42 0.51 0.56 0.60 0.67 0.68 0.62 0.51 0.58 0.64 0.59 0.56 0.49 0.45 0.38 0.33 0.30 0.32 0.36 0.41 0.42 0.41 0.38 0.37 0.39 0.49 0.57 0.64 0.66 0.68 0.74 0.81 0.79
0.04 0.05 0.12 0.23 0.31 0.51 0.46 0.52 0.81 0.80 0.77 0.74 0.59 0.45 0.34 0.29 0.32 0.35 0.34 0.30 0.29 0.30 0.30 0.30 0.39 0.49 0.46 0.44 0.42 0.40 0.37 0.35 0.31 0.30 0.31 0.33 0.36 0.38 0.38 0.38 0.40 0.42 0.43 0.47 0.54 0.60 0.65 0.71 0.74
0.05 0.08 0.29 0.58 0.76 0.79 0.45 0.48 0.70 0.62 0.67 0.71 0.50 0.29 0.22 0.23 0.22 0.25 0.25 0.21 0.18 0.17 0.16 0.15 0.19 0.29 0.30 0.31 0.35 0.34 0.34 0.33 0.30 0.26 0.25 0.26 0.26 0.31 0.35 0.37 0.42 0.47 0.48 0.48 0.50 0.56 0.63 0.69 0.75
0.06 0.06 0.14 0.21 0.30 0.40 0.43 0.82 0.79 0.47 0.49 0.41 0.22 0.12 0.12 0.19 0.17 0.14 0.14 0.13 0.11 0.09 0.08 0.07 0.07 0.09 0.11 0.14 0.18 0.20 0.23 0.24 0.25 0.32 0.30 0.25 0.24 0.27 0.34 0.39 0.42 0.45 0.51 0.54 0.61 0.64 0.69 0.75 0.78
0.05 0.04 0.04 0.06 0.11 0.27 0.51 0.77 0.56 0.32 0.32 0.20 0.11 0.06 0.05 0.07 0.08 0.06 0.06 0.06 0.05 0.04 0.04 0.04 0.04 0.05 0.06 0.06 0.08 0.10 0.14 0.18 0.24 0.30 0.29 0.25 0.24 0.23 0.24 0.31 0.42 0.44 0.47 0.55 0.64 0.69 0.73 0.79 0.85
0.04 0.04 0.03 0.04 0.07 0.17 0.36 0.62 0.58 0.38 0.31 0.17 0.09 0.04 0.03 0.03 0.03 0.03 0.03 0.03 0.03 0.02 0.02 0.03 0.03 0.04 0.03 0.03 0.04 0.06 0.11 0.19 0.26 0.30 0.26 0.23 0.21 0.20 0.20 0.24 0.32 0.36 0.39 0.48 0.62 0.69 0.77 0.88 0.96
0.06 0.06 0.06 0.06 0.07 0.10 0.22 0.36 0.28 0.26 0.20 0.12 0.06 0.04 0.02 0.01 0.01 0.01 0.01 0.01 0.01 0.01 0.02 0.02 0.02 0.03 0.02 0.02 0.03 0.07 0.17 0.21 0.27 0.42 0.40 0.25 0.19 0.18 0.17 0.18 0.19 0.21 0.24 0.33 0.50 0.70 0.82 0.93 0.98
0.07 0.07 0.06 0.07 0.07 0.07 0.10 0.18 0.13 0.14 0.10 0.07 0.05 0.02 0.01 0.01 0.01 0.00 0.00 0.01 0.01 0.01 0.01 0.01 0.02 0.02 0.02 0.02 0.02 0.05 0.15 0.20 0.23 0.31 0.34 0.26 0.21 0.18 0.16 0.15 0.14 0.13 0.16 0.25 0.42 0.59 0.75 0.90 1.01

GEFSSGP_prec_meanprecacc_096.txt.gz
Total_Precipitation_Accumulation
0.00 0.01 0.06 0.16 0.34 0.59 0.74 0.47 0.37 0.29 0.26 0.36 0.39 0.34 0.37 0.41 0.44 0.46 0.15 0.05 0.02 0.01 0.02 0.05 0.08 0.06 0.05 0.05 0.06 0.07 0.08 0.10 0.09 0.07 0.06 0.04 0.02 0.02 0.02 0.02 0.02 0.02 0.03 0.03 0.03 0.02 0.02 0.02 0.02
0.00 0.01 0.05 0.14 0.41 1.02 1.04 0.51 0.30 0.20 0.28 0.42 0.53 0.47 0.34 0.29 0.21 0.12 0.07 0.06 0.02 0.01 0.02 0.03 0.07 0.07 0.05 0.04 0.06 0.07 0.08 0.09 0.08 0.07 0.06 0.05 0.04 0.03 0.02 0.02 0.02 0.03 0.04 0.03 0.02 0.02 0.02 0.02 0.02
0.00 0.01 0.04 0.11 0.34 0.71 0.77 0.42 0.21 0.19 0.27 0.46 0.53 0.39 0.29 0.27 0.17 0.09 0.07 0.05 0.04 0.03 0.02 0.03 0.05 0.06 0.06 0.05 0.05 0.06 0.07 0.08 0.07 0.07 0.05 0.04 0.05 0.05 0.03 0.02 0.03 0.04 0.04 0.03 0.02 0.02 0.01 0.01 0.01
0.00 0.01 0.02 0.06 0.17 0.31 0.31 0.25 0.20 0.20 0.31 0.35 0.43 0.37 0.22 0.23 0.19 0.11 0.09 0.06 0.04 0.04 0.03 0.04 0.06 0.06 0.06 0.05 0.05 0.05 0.06 0.06 0.06 0.05 0.05 0.04 0.05 0.05 0.05 0.04 0.04 0.04 0.05 0.03 0.02 0.02 0.01 0.01 0.01
0.00 0.00 0.02 0.04 0.12 0.21 0.23 0.24 0.25 0.27 0.32 0.44 0.49 0.44 0.29 0.22 0.19 0.19 0.20 0.10 0.05 0.03 0.03 0.04 0.07 0.08 0.07 0.06 0.06 0.06 0.06 0.06 0.06 0.06 0.05 0.05 0.06 0.07 0.06 0.05 0.04 0.05 0.05 0.05 0.03 0.02 0.02 0.02 0.02
0.00 0.00 0.01 0.03 0.08 0.14 0.21 0.22 0.24 0.30 0.42 0.59 0.51 0.40 0.33 0.28 0.27 0.25 0.20 0.12 0.06 0.04 0.04 0.05 0.08 0.09 0.09 0.08 0.08 0.08 0.08 0.08 0.07 0.06 0.06 0.06 0.07 0.08 0.07 0.07 0.06 0.08 0.09 0.08 0.05 0.03 0.03 0.03 0.03
0.00 0.00 0.00 0.02 0.05 0.09 0.13 0.21 0.31 0.33 0.46 0.58 0.44 0.35 0.42 0.48 0.42 0.34 0.25 0.17 0.11 0.07 0.08 0.08 0.07 0.08 0.10 0.12 0.12 0.11 0.10 0.10 0.09 0.08 0.08 0.07 0.09 0.10 0.10 0.10 0.11 0.11 0.13 0.13 0.10 0.06 0.06 0.05 0.05
0.00 0.00 0.00 0.00 0.02 0.07 0.07 0.13 0.23 0.30 0.44 0.46 0.41 0.46 0.68 0.62 0.36 0.32 0.28 0.19 0.15 0.14 0.12 0.12 0.12 0.13 0.12 0.12 0.14 0.14 0.13 0.12 0.11 0.11 0.11 0.11 0.13 0.15 0.17 0.15 0.17 0.18 0.20 0.20 0.19 0.16 0.14 0.14 0.13
0.00 0.00 0.00 0.00 0.01 0.03 0.06 0.14 0.20 0.28 0.38 0.46 0.57 0.62 0.58 0.49 0.34 0.32 0.28 0.23 0.18 0.16 0.13 0.12 0.13 0.15 0.15 0.14 0.13 0.15 0.16 0.16 0.15 0.17 0.17 0.19 0.23 0.36 0.44 0.45 0.50 0.48 0.46 0.44 0.39 0.38 0.37 0.32 0.22
0.00 0.00 0.00 0.00 0.01 0.02 0.05 0.15 0.27 0.34 0.44 0.63 0.91 0.92 0.62 0.54 0.43 0.39 0.40 0.30 0.19 0.15 0.13 0.14 0.15 0.16 0.15 0.14 0.21 0.23 0.24 0.28 0.24 0.33 0.43 0.47 0.54 0.55 0.47 0.70 0.84 0.86 0.92 0.85 0.79 0.94 0.80 0.58 0.46
0.00 0.00 0.00 0.00 0.00 0.02 0.06 0.12 0.19 0.31 0.61 1.02 1.12 0.94 0.73 0.76 0.67 0.53 0.64 0.53 0.31 0.21 0.15 0.18 0.21 0.22 0.22 0.27 0.27 0.31 0.37 0.51 0.47 0.49 0.65 0.82 0.80 0.67 0.57 0.71 0.98 1.17 1.32 1.27 1.37 1.49 1.09 1.02 1.08
0.00 0.00 0.00 0.00 0.01 0.02 0.03 0.06 0.12 0.33 0.77 0.89 0.86 0.74 0.73 0.91 0.82 0.77 0.87 0.71 0.56 0.43 0.37 0.37 0.38 0.43 0.43 0.46 0.48 0.47 0.54 0.70 0.78 0.94 1.02 1.19 1.21 1.06 0.92 0.93 1.05 1.27 1.46 1.80 1.84 1.71 1.60 1.56 1.46
0.00 0.00 0.00 0.00 0.01 0.05 0.03 0.07 0.23 0.50 0.71 0.58 0.46 0.63 0.70 0.91 1.08 1.17 1.11 0.87 0.77 0.74 0.83 0.82 0.72 0.80 0.89 0.92 0.94 0.84 0.91 1.00 1.08 1.28 1.43 1.54 1.70 1.61 1.53 1.44 1.39 1.30 1.48 1.81 2.02 1.94 1.96 1.91 1.80
0.00 0.00 0.00 0.00 0.01 0.03 0.06 0.14 0.32 0.54 0.50 0.47 0.57 0.84 1.04 0.93 1.15 1.37 1.16 1.01 0.97 1.04 1.22 1.26 1.27 1.42 1.46 1.42 1.44 1.41 1.24 1.22 1.25 1.38 1.45 1.65 1.85 2.06 2.13 2.01 1.83 1.54 1.52 1.63 1.97 2.09 2.21 2.09 1.95
0.00 0.01 0.03 0.04 0.05 0.04 0.08 0.31 0.44 0.51 0.43 0.49 0.68 0.86 1.11 1.05 1.12 1.25 1.17 1.17 1.32 1.56 1.63 1.68 1.84 2.00 1.99 1.89 1.74 1.57 1.46 1.45 1.56 1.61 1.59 1.80 2.04 2.22 2.22 1.97 1.65 1.47 1.57 1.67 1.62 1.66 1.95 1.74 1.60
0.01 0.04 0.12 0.13 0.08 0.07 0.13 0.51 0.62 0.56 0.67 0.77 0.92 0.93 1.03 1.05 1.04 1.09 1.20 1.47 1.72 1.96 1.98 2.04 2.06 2.21 2.28 2.22 2.14 1.90 1.71 1.76 1.70 1.62 1.59 1.70 1.91 1.93 1.94 1.58 1.22 1.31 1.53 1.60 1.56 1.51 1.61 1.59 1.62
0.02 0.05 0.11 0.17 0.11 0.09 0.18 0.71 0.74 0.52 0.73 0.97 0.90 0.92 0.97 1.08 1.11 1.12 1.33 1.66 1.99 2.31 2.52 2.64 2.70 2.58 2.57 2.50 2.42 2.23 2.02 1.80 1.59 1.58 1.53 1.45 1.39 1.42 1.49 1.20 1.08 1.23 1.37 1.40 1.37 1.49 1.59 1.47 1.53
0.05 0.07 0.13 0.19 0.14 0.12 0.24 0.55 0.62 0.62 0.75 0.89 0.85 0.83 0.87 0.97 1.19 1.29 1.49 1.79 2.12 2.47 2.87 3.11 3.10 2.85 2.54 2.26 1.97 1.88 1.76 1.66 1.54 1.47 1.36 1.20 1.10 1.11 1.28 1.16 1.07 1.19 1.27 1.22 1.36 1.47 1.56 1.35 1.32
0.06 0.08 0.16 0.21 0.14 0.15 0.29 0.47 0.58 0.66 0.86 0.97 0.93 0.86 0.84 1.02 1.25 1.41 1.61 1.84 2.16 2.48 2.90 3.06 3.00 2.49 1.98 1.73 1.53 1.43 1.30 1.23 1.28 1.28 1.21 1.16 1.07 1.05 1.19 1.09 1.01 1.01 1.02 0.99 1.13 1.26 1.27 1.05 1.26
0.09 0.11 0.19 0.19 0.12 0.14 0.30 0.55 0.69 0.74 0.71 0.78 0.75 0.78 0.78 1.07 1.35 1.67 2.02 2.13 2.03 2.26 2.72 2.73 2.26 1.75 1.42 1.24 1.11 1.00 0.98 0.94 0.91 0.86 0.83 0.81 0.83 0.87 0.95 0.93 0.84 0.80 0.83 0.82 0.90 1.03 1.03 0.91 1.19
0.12 0.13 0.16 0.15 0.13 0.19 0.35 0.65 0.87 0.80 0.57 0.53 0.56 0.60 0.71 0.99 1.34 1.64 1.94 1.93 1.77 1.97 1.97 1.63 1.32 1.04 0.82 0.70 0.65 0.67 0.65 0.62 0.55 0.49 0.48 0.53 0.58 0.60 0.59 0.60 0.65 0.69 0.70 0.71 0.78 0.93 1.05 0.92 0.95
0.08 0.07 0.07 0.06 0.12 0.26 0.38 0.83 1.10 0.91 0.65 0.55 0.53 0.60 0.65 0.68 0.82 1.05 1.21 1.28 1.33 1.34 1.17 0.97 0.83 0.69 0.61 0.59 0.54 0.59 0.53 0.47 0.42 0.36 0.37 0.41 0.43 0.42 0.41 0.44 0.54 0.61 0.66 0.71 0.66 0.71 0.87 0.92 0.84
0.05 0.04 0.04 0.08 0.11 0.23 0.39 0.66 0.97 0.98 0.86 0.72 0.61 0.60 0.53 0.45 0.47 0.56 0.61 0.67 0.73 0.75 0.70 0.58 0.63 0.68 0.62 0.58 0.51 0.48 0.41 0.35 0.31 0.33 0.37 0.42 0.43 0.42 0.38 0.37 0.39 0.49 0.58 0.64 0.66 0.68 0.74 0.81 0.79
0.04 0.05 0.12 0.23 0.31 0.52 0.46 0.52 0.81 0.80 0.77 0.75 0.61 0.47 0.36 0.31 0.34 0.38 0.37 0.35 0.34 0.34 0.35 0.35 0.42 0.50 0.47 0.46 0.43 0.42 0.39 0.36 0.32 0.31 0.33 0.34 0.37 0.39 0.38 0.38 0.40 0.42 0.43 0.47 0.54 0.60 0.66 0.71 0.74
0.05 0.08 0.29 0.58 0.76 0.79 0.45 0.48 0.70 0.62 0.67 0.71 0.51 0.30 0.23 0.24 0.23 0.26 0.27 0.24 0.21 0.19 0.18 0.17 0.21 0.30 0.31 0.32 0.36 0.35 0.35 0.34 0.31 0.27 0.26 0.27 0.27 0.31 0.35 0.37 0.42 0.47 0.48 0.48 0.50 0.56 0.63 0.70 0.75
0.06 0.06 0.15 0.22 0.30 0.41 0.43 0.82 0.79 0.47 0.49 0.41 0.22 0.12 0.12 0.19 0.17 0.14 0.14 0.15 0.12 0.10 0.09 0.08 0.08 0.10 0.12 0.15 0.19 0.21 0.24 0.24 0.25 0.33 0.30 0.26 0.24 0.28 0.34 0.39 0.42 0.46 0.51 0.54 0.61 0.64 0.69 0.75 0.78
0.05 0.04 0.04 0.06 0.11 0.27 0.51 0.77 0.56 0.32 0.32 0.20 0.11 0.06 0.05 0.07 0.08 0.06 0.06 0.06 0.06 0.05 0.04 0.04 0.05 0.06 0.06 0.06 0.09 0.11 0.15 0.19 0.25 0.31 0.29 0.25 0.24 0.23 0.24 0.31 0.42 0.44 0.47 0.55 0.64 0.69 0.74 0.80 0.85
0.05 0.04 0.04 0.04 0.08 0.18 0.36 0.62 0.58 0.38 0.31 0.17 0.09 0.04 0.03 0.03 0.03 0.03 0.03 0.03 0.03 0.02 0.02 0.03 0.03 0.04 0.04 0.03 0.04 0.06 0.11 0.19 0.27 0.30 0.26 0.23 0.21 0.20 0.20 0.25 0.32 0.36 0.39 0.49 0.62 0.70 0.77 0.88 0.97
0.07 0.06 0.06 0.06 0.07 0.10 0.22 0.36 0.28 0.26 0.20 0.12 0.06 0.04 0.02 0.01 0.01 0.01 0.01 0.01 0.01 0.01 0.02 0.02 0.02 0.03 0.03 0.03 0.03 0.08 0.17 0.21 0.28 0.42 0.40 0.25 0.19 0.18 0.17 0.18 0.19 0.21 0.24 0.33 0.50 0.70 0.82 0.93 0.98
0.08 0.07 0.06 0.07 0.08 0.07 0.11 0.18 0.13 0.14 0.10 0.07 0.05 0.02 0.01 0.01 0.01 0.00 0.00 0.01 0.01 0.01 0.01 0.01 0.02 0.02 0.02 0.02 0.02 0.06 0.15 0.20 0.23 0.31 0.34 0.26 0.21 0.18 0.16 0.15 0.14 0.13 0.16 0.25 0.42 0.59 0.75 0.90 1.02

GEFSSGP_prec_meanprecacc_102.txt.gz
Total_Precipitation_Accumulation
0.00 0.01 0.06 0.17 0.38 0.67 0.82 0.49 0.38 0.29 0.26 0.36 0.39 0.35 0.38 0.48 0.55 0.66 0.26 0.05 0.02 0.01 0.02 0.05 0.08 0.06 0.05 0.06 0.08 0.10 0.10 0.11 0.10 0.08 0.07 0.05 0.03 0.03 0.03 0.04 0.03 0.04 0.04 0.04 0.04 0.03 0.03 0.03 0.03
0.00 0.01 0.06 0.15 0.45 1.09 1.09 0.52 0.30 0.20 0.28 0.42 0.53 0.48 0.37 0.36 0.25 0.17 0.10 0.06 0.02 0.01 0.02 0.03 0.07 0.08 0.06 0.05 0.07 0.09 0.10 0.11 0.09 0.08 0.07 0.06 0.05 0.04 0.04 0.04 0.04 0.05 0.05 0.04 0.03 0.03 0.03 0.02 0.02
0.00 0.01 0.04 0.12 0.36 0.73 0.79 0.43 0.21 0.19 0.27 0.46 0.53 0.39 0.32 0.32 0.18 0.09 0.07 0.05 0.04 0.03 0.02 0.03 0.05 0.06 0.07 0.06 0.07 0.08 0.08 0.09 0.08 0.08 0.06 0.06 0.06 0.06 0.05 0.04 0.04 0.06 0.06 0.04 0.03 0.02 0.02 0.02 0.02
0.00 0.01 0.02 0.07 0.18 0.31 0.31 0.26 0.20 0.20 0.31 0.35 0.43 0.38 0.24 0.26 0.21 0.12 0.09 0.07 0.05 0.04 0.03 0.04 0.06 0.06 0.06 0.06 0.06 0.06 0.07 0.07 0.07 0.06 0.06 0.06 0.06 0.06 0.06 0.06 0.05 0.05 0.06 0.05 0.04 0.03 0.02 0.02 0.02
0.00 0.00 0.02 0.05 0.13 0.21 0.23 0.24 0.25 0.27 0.32 0.44 0.50 0.47 0.33 0.24 0.20 0.21 0.23 0.13 0.06 0.04 0.03 0.04 0.07 0.08 0.08 0.07 0.07 0.07 0.07 0.07 0.07 0.07 0.07 0.06 0.07 0.08 0.07 0.07 0.05 0.06 0.07 0.06 0.04 0.03 0.03 0.03 0.03
0.00 0.00 0.01 0.03 0.08 0.14 0.21 0.22 0.24 0.30 0.43 0.61 0.52 0.42 0.37 0.30 0.29 0.29 0.25 0.22 0.12 0.07 0.05 0.06 0.09 0.10 0.10 0.10 0.10 0.10 0.09 0.09 0.08 0.07 0.07 0.07 0.08 0.09 0.08 0.07 0.07 0.09 0.10 0.09 0.06 0.04 0.04 0.04 0.04
0.00 0.00 0.01 0.02 0.06 0.09 0.13 0.21 0.31 0.34 0.46 0.60 0.46 0.36 0.46 0.51 0.44 0.37 0.29 0.24 0.17 0.16 0.16 0.09 0.07 0.08 0.10 0.14 0.16 0.14 0.12 0.11 0.10 0.08 0.08 0.08 0.09 0.11 0.10 0.11 0.11 0.12 0.14 0.13 0.11 0.07 0.06 0.05 0.05
0.00 0.00 0.00 0.00 0.02 0.07 0.07 0.13 0.23 0.30 0.44 0.46 0.41 0.49 0.75 0.66 0.37 0.34 0.33 0.25 0.22 0.27 0.25 0.16 0.12 0.14 0.12 0.13 0.16 0.18 0.16 0.14 0.12 0.12 0.11 0.11 0.13 0.16 0.17 0.16 0.18 0.19 0.21 0.21 0.20 0.16 0.14 0.14 0.14
0.00 0.00 0.00 0.00 0.01 0.03 0.07 0.14 0.20 0.28 0.38 0.46 0.57 0.64 0.66 0.53 0.36 0.38 0.39 0.35 0.31 0.32 0.26 0.17 0.15 0.16 0.18 0.15 0.14 0.17 0.18 0.18 0.16 0.18 0.18 0.21 0.30 0.44 0.49 0.49 0.52 0.50 0.47 0.45 0.40 0.39 0.38 0.32 0.23
0.00 0.00 0.00 0.00 0.01 0.02 0.05 0.15 0.27 0.34 0.44 0.64 0.92 0.94 0.66 0.56 0.47 0.46 0.55 0.44 0.33 0.33 0.25 0.21 0.18 0.20 0.19 0.18 0.25 0.28 0.29 0.32 0.30 0.42 0.48 0.56 0.69 0.71 0.59 0.78 0.88 0.89 0.95 0.87 0.81 0.96 0.82 0.60 0.51
0.00 0.00 0.00 0.00 0.00 0.02 0.06 0.12 0.19 0.31 0.63 1.05 1.14 0.97 0.75 0.79 0.73 0.63 0.75 0.65 0.42 0.32 0.31 0.32 0.25 0.26 0.29 0.37 0.36 0.39 0.48 0.64 0.61 0.64 0.78 0.96 0.92 0.76 0.68 0.82 1.08 1.25 1.39 1.34 1.44 1.53 1.14 1.08 1.19
0.00 0.00 0.00 0.00 0.01 0.02 0.03 0.06 0.12 0.33 0.79 0.93 0.88 0.75 0.75 0.94 0.89 0.87 0.97 0.83 0.72 0.55 0.52 0.52 0.45 0.50 0.53 0.55 0.56 0.54 0.62 0.80 0.93 1.10 1.16 1.32 1.34 1.18 1.03 1.06 1.26 1.44 1.60 1.91 1.95 1.83 1.67 1.63 1.52
0.00 0.00 0.00 0.00 0.01 0.05 0.03 0.07 0.23 0.50 0.72 0.61 0.48 0.65 0.73 0.97 1.19 1.31 1.26 1.00 0.98 0.90 0.98 0.99 0.83 0.88 0.97 1.03 1.04 0.91 0.99 1.10 1.20 1.42 1.55 1.66 1.81 1.73 1.63 1.53 1.49 1.40 1.58 1.91 2.12 2.04 2.03 1.97 1.86
0.00 0.00 0.00 0.01 0.01 0.03 0.06 0.14 0.33 0.55 0.51 0.47 0.58 0.88 1.12 1.03 1.28 1.56 1.43 1.24 1.20 1.23 1.38 1.44 1.41 1.50 1.53 1.50 1.53 1.51 1.32 1.32 1.34 1.45 1.52 1.72 1.93 2.14 2.20 2.08 1.90 1.61 1.59 1.71 2.05 2.16 2.29 2.18 2.04
0.00 0.01 0.04 0.05 0.05 0.05 0.08 0.31 0.45 0.52 0.43 0.50 0.70 0.92 1.21 1.15 1.26 1.44 1.48 1.50 1.59 1.79 1.81 1.83 1.95 2.09 2.09 1.98 1.82 1.65 1.54 1.51 1.64 1.68 1.66 1.85 2.09 2.28 2.28 2.04 1.71 1.52 1.61 1.71 1.67 1.72 2.02 1.81 1.67
0.01 0.04 0.13 0.14 0.08 0.07 0.13 0.52 0.63 0.57 0.69 0.79 0.95 0.99 1.11 1.16 1.18 1.31 1.56 1.86 2.02 2.24 2.20 2.20 2.18 2.35 2.41 2.34 2.24 1.99 1.79 1.85 1.78 1.67 1.65 1.73 1.93 1.96 1.97 1.62 1.27 1.35 1.56 1.64 1.60 1.56 1.66 1.65 1.68
0.03 0.06 0.12 0.18 0.11 0.09 0.18 0.71 0.74 0.53 0.76 1.00 0.92 0.96 1.05 1.21 1.23 1.29 1.65 2.02 2.28 2.60 2.73 2.81 2.88 2.77 2.72 2.63 2.53 2.33 2.12 1.89 1.65 1.63 1.59 1.48 1.40 1.42 1.51 1.23 1.11 1.25 1.40 1.43 1.40 1.54 1.63 1.51 1.58
0.05 0.08 0.13 0.20 0.14 0.12 0.24 0.55 0.63 0.63 0.77 0.91 0.88 0.88 0.93 1.09 1.31 1.40 1.66 1.96 2.27 2.69 3.05 3.27 3.27 3.03 2.72 2.42 2.10 2.02 1.88 1.76 1.63 1.54 1.42 1.23 1.11 1.12 1.29 1.18 1.08 1.21 1.29 1.25 1.39 1.50 1.58 1.36 1.34
0.06 0.09 0.17 0.22 0.15 0.15 0.30 0.47 0.58 0.66 0.87 0.98 0.95 0.90 0.88 1.10 1.35 1.52 1.73 1.94 2.26 2.66 3.08 3.21 3.16 2.65 2.16 1.92 1.69 1.57 1.43 1.34 1.36 1.33 1.24 1.18 1.08 1.06 1.20 1.10 1.02 1.02 1.03 1.00 1.15 1.27 1.28 1.06 1.26
0.09 0.11 0.19 0.20 0.13 0.14 0.30 0.55 0.70 0.75 0.71 0.78 0.77 0.81 0.82 1.13 1.45 1.79 2.16 2.23 2.12 2.37 2.89 2.87 2.41 1.90 1.57 1.40 1.26 1.14 1.09 1.01 0.96 0.89 0.86 0.82 0.83 0.88 0.95 0.94 0.85 0.81 0.83 0.82 0.90 1.04 1.03 0.92 1.19
0.12 0.14 0.17 0.15 0.14 0.20 0.36 0.66 0.90 0.82 0.58 0.54 0.57 0.61 0.75 1.05 1.42 1.74 2.06 2.04 1.85 2.05 2.08 1.75 1.45 1.17 0.94 0.82 0.77 0.77 0.74 0.68 0.60 0.53 0.52 0.55 0.59 0.60 0.59 0.61 0.65 0.70 0.70 0.72 0.78 0.94 1.05 0.93 0.96
0.08 0.07 0.07 0.06 0.12 0.26 0.40 0.86 1.15 0.96 0.68 0.55 0.53 0.61 0.68 0.74 0.90 1.13 1.27 1.35 1.39 1.40 1.26 1.09 0.96 0.81 0.71 0.70 0.64 0.67 0.59 0.53 0.47 0.40 0.40 0.42 0.44 0.43 0.41 0.44 0.54 0.61 0.67 0.71 0.66 0.71 0.87 0.93 0.85
0.05 0.04 0.04 0.08 0.11 0.24 0.43 0.71 1.00 1.02 0.89 0.73 0.62 0.61 0.54 0.49 0.53 0.62 0.66 0.72 0.78 0.80 0.78 0.68 0.73 0.78 0.70 0.66 0.61 0.57 0.48 0.40 0.35 0.36 0.40 0.44 0.44 0.42 0.39 0.38 0.40 0.50 0.58 0.64 0.66 0.68 0.74 0.81 0.79
0.04 0.05 0.12 0.23 0.34 0.60 0.56 0.57 0.85 0.83 0.78 0.75 0.62 0.47 0.37 0.33 0.37 0.42 0.41 0.39 0.39 0.38 0.42 0.43 0.51 0.59 0.54 0.52 0.50 0.48 0.45 0.42 0.37 0.35 0.35 0.35 0.38 0.39 0.39 0.38 0.41 0.43 0.44 0.47 0.55 0.61 0.66 0.72 0.74
0.05 0.08 0.31 0.65 0.92 0.96 0.54 0.52 0.71 0.62 0.67 0.71 0.51 0.30 0.24 0.25 0.25 0.28 0.29 0.27 0.24 0.23 0.24 0.25 0.29 0.37 0.36 0.36 0.41 0.41 0.41 0.39 0.35 0.30 0.28 0.28 0.28 0.32 0.36 0.38 0.43 0.48 0.49 0.49 0.51 0.57 0.64 0.70 0.76
0.06 0.06 0.17 0.29 0.41 0.50 0.49 0.84 0.80 0.48 0.49 0.41 0.22 0.12 0.12 0.20 0.18 0.16 0.16 0.17 0.15 0.13 0.13 0.14 0.14 0.16 0.16 0.19 0.24 0.25 0.28 0.27 0.27 0.35 0.31 0.26 0.25 0.28 0.34 0.39 0.43 0.46 0.52 0.54 0.61 0.65 0.70 0.75 0.78
0.05 0.04 0.05 0.07 0.12 0.30 0.55 0.80 0.58 0.33 0.33 0.20 0.11 0.06 0.05 0.07 0.09 0.08 0.08 0.08 0.08 0.07 0.07 0.08 0.10 0.12 0.12 0.11 0.13 0.14 0.18 0.21 0.27 0.33 0.30 0.25 0.25 0.23 0.25 0.32 0.43 0.45 0.48 0.55 0.64 0.69 0.74 0.80 0.85
0.05 0.04 0.04 0.04 0.10 0.21 0.41 0.69 0.66 0.44 0.34 0.18 0.09 0.04 0.03 0.03 0.03 0.03 0.04 0.04 0.04 0.04 0.05 0.05 0.08 0.09 0.08 0.07 0.07 0.08 0.13 0.21 0.29 0.32 0.27 0.23 0.21 0.20 0.21 0.25 0.33 0.36 0.40 0.49 0.62 0.70 0.77 0.89 0.97
0.07 0.07 0.06 0.06 0.08 0.12 0.29 0.46 0.38 0.35 0.23 0.12 0.06 0.04 0.02 0.01 0.01 0.01 0.01 0.02 0.03 0.03 0.03 0.04 0.06 0.07 0.05 0.05 0.06 0.11 0.19 0.22 0.29 0.43 0.41 0.25 0.20 0.18 0.17 0.18 0.20 0.21 0.24 0.33 0.50 0.70 0.82 0.93 0.98
0.08 0.07 0.07 0.10 0.10 0.08 0.14 0.26 0.22 0.21 0.13 0.08 0.05 0.02 0.01 0.01 0.01 0.00 0.00 0.01 0.01 0.02 0.02 0.02 0.03 0.04 0.03 0.03 0.05 0.08 0.17 0.21 0.25 0.32 0.34 0.27 0.21 0.18 0.16 0.15 0.14 0.13 0.16 0.25 0.42 0.59 0.75 0.90 1.02

GEFSSGP_prec_meanprecacc_108.txt.gz
Total_Precipitation_Accumulation
0.00 0.01 0.07 0.22 0.58 1.00 1.12 0.64 0.45 0.33 0.28 0.37 0.40 0.36 0.40 0.52 0.62 0.83 0.49 0.15 0.04 0.01 0.02 0.05 0.08 0.06 0.05 0.06 0.08 0.10 0.11 0.12 0.10 0.08 0.07 0.05 0.04 0.04 0.04 0.04 0.04 0.05 0.05 0.05 0.04 0.04 0.04 0.03 0.04
0.00 0.01 0.08 0.24 0.71 1.44 1.28 0.59 0.35 0.22 0.29 0.44 0.54 0.49 0.38 0.40 0.30 0.21 0.22 0.26 0.07 0.02 0.02 0.03 0.07 0.08 0.06 0.06 0.08 0.10 0.11 0.11 0.10 0.08 0.07 0.07 0.06 0.05 0.05 0.05 0.05 0.06 0.06 0.04 0.04 0.03 0.03 0.03 0.03
0.00 0.02 0.09 0.22 0.54 0.88 0.85 0.47 0.23 0.20 0.29 0.47 0.54 0.40 0.35 0.41 0.29 0.17 0.14 0.14 0.07 0.04 0.02 0.03 0.05 0.07 0.07 0.06 0.07 0.08 0.09 0.09 0.09 0.08 0.07 0.06 0.06 0.06 0.06 0.05 0.06 0.07 0.07 0.05 0.04 0.03 0.02 0.02 0.03
0.00 0.03 0.08 0.16 0.25 0.34 0.32 0.27 0.21 0.21 0.31 0.37 0.46 0.42 0.30 0.33 0.27 0.18 0.15 0.10 0.07 0.04 0.03 0.04 0.06 0.07 0.07 0.06 0.06 0.07 0.07 0.08 0.08 0.07 0.06 0.06 0.07 0.07 0.07 0.07 0.06 0.07 0.07 0.05 0.04 0.03 0.02 0.03 0.04
0.00 0.02 0.06 0.11 0.16 0.22 0.23 0.25 0.25 0.28 0.33 0.46 0.55 0.57 0.49 0.30 0.24 0.26 0.29 0.19 0.12 0.06 0.04 0.05 0.08 0.09 0.08 0.08 0.07 0.07 0.07 0.07 0.08 0.08 0.07 0.06 0.07 0.08 0.08 0.08 0.06 0.07 0.08 0.06 0.05 0.03 0.03 0.04 0.04
0.00 0.01 0.03 0.06 0.09 0.14 0.21 0.22 0.25 0.31 0.43 0.64 0.63 0.54 0.50 0.39 0.35 0.35 0.32 0.35 0.35 0.18 0.10 0.08 0.11 0.12 0.11 0.10 0.10 0.10 0.10 0.09 0.08 0.08 0.08 0.07 0.08 0.09 0.08 0.08 0.08 0.10 0.11 0.09 0.06 0.04 0.04 0.04 0.05
0.00 0.01 0.02 0.03 0.06 0.09 0.13 0.22 0.31 0.34 0.47 0.63 0.53 0.48 0.57 0.60 0.53 0.45 0.38 0.41 0.34 0.27 0.22 0.17 0.13 0.12 0.13 0.15 0.16 0.14 0.12 0.12 0.10 0.09 0.09 0.08 0.10 0.11 0.11 0.11 0.12 0.13 0.14 0.14 0.11 0.07 0.06 0.06 0.06
0.00 0.01 0.01 0.01 0.02 0.07 0.07 0.13 0.23 0.31 0.45 0.48 0.48 0.62 0.86 0.76 0.46 0.44 0.44 0.42 0.37 0.36 0.32 0.29 0.24 0.19 0.16 0.15 0.17 0.18 0.17 0.15 0.12 0.12 0.12 0.12 0.14 0.16 0.18 0.17 0.18 0.20 0.22 0.21 0.20 0.17 0.15 0.15 0.14
0.00 0.00 0.00 0.00 0.01 0.03 0.07 0.14 0.20 0.28 0.38 0.49 0.61 0.69 0.73 0.59 0.43 0.49 0.57 0.60 0.64 0.52 0.35 0.26 0.28 0.27 0.22 0.18 0.16 0.18 0.18 0.18 0.17 0.19 0.20 0.22 0.32 0.45 0.51 0.50 0.53 0.51 0.48 0.45 0.41 0.40 0.38 0.33 0.23
0.00 0.00 0.00 0.00 0.01 0.02 0.05 0.15 0.28 0.35 0.45 0.68 1.00 1.05 0.72 0.63 0.57 0.62 0.79 0.77 0.92 0.71 0.41 0.33 0.28 0.28 0.24 0.21 0.28 0.30 0.30 0.33 0.31 0.43 0.50 0.58 0.72 0.74 0.62 0.82 0.91 0.90 0.96 0.87 0.82 0.97 0.83 0.61 0.53
0.00 0.00 0.00 0.00 0.01 0.02 0.06 0.12 0.19 0.31 0.64 1.07 1.21 1.07 0.82 0.88 0.89 0.82 0.98 0.94 0.76 0.59 0.57 0.53 0.38 0.37 0.35 0.42 0.40 0.42 0.51 0.65 0.62 0.66 0.80 0.99 0.95 0.80 0.71 0.85 1.11 1.27 1.40 1.35 1.45 1.54 1.16 1.10 1.23
0.00 0.00 0.00 0.01 0.01 0.02 0.03 0.06 0.12 0.33 0.79 0.94 0.93 0.88 0.84 1.02 0.99 1.04 1.21 1.13 1.03 0.81 0.87 0.95 0.71 0.70 0.65 0.66 0.63 0.59 0.64 0.81 0.95 1.11 1.17 1.34 1.36 1.21 1.06 1.08 1.28 1.46 1.62 1.94 1.96 1.84 1.69 1.65 1.57
0.00 0.00 0.00 0.00 0.01 0.05 0.03 0.07 0.23 0.50 0.72 0.63 0.51 0.76 0.81 1.03 1.26 1.44 1.46 1.27 1.37 1.37 1.45 1.45 1.16 1.10 1.10 1.14 1.11 0.97 1.03 1.12 1.22 1.43 1.56 1.67 1.82 1.74 1.64 1.56 1.51 1.42 1.60 1.93 2.14 2.06 2.05 1.99 1.89
0.00 0.00 0.00 0.01 0.02 0.04 0.07 0.15 0.33 0.55 0.51 0.49 0.62 1.00 1.18 1.09 1.34 1.67 1.64 1.55 1.71 1.83 1.91 1.89 1.76 1.76 1.68 1.61 1.62 1.58 1.36 1.36 1.38 1.47 1.54 1.72 1.93 2.14 2.20 2.10 1.92 1.63 1.61 1.73 2.06 2.18 2.30 2.19 2.05
0.00 0.01 0.04 0.05 0.06 0.05 0.09 0.32 0.46 0.53 0.44 0.51 0.73 1.01 1.29 1.20 1.32 1.55 1.68 1.89 2.19 2.49 2.39 2.30 2.28 2.44 2.31 2.10 1.91 1.71 1.63 1.64 1.70 1.71 1.67 1.86 2.09 2.29 2.29 2.05 1.73 1.54 1.63 1.73 1.69 1.73 2.03 1.82 1.68
0.01 0.04 0.14 0.16 0.10 0.09 0.15 0.54 0.64 0.59 0.71 0.81 0.97 1.06 1.22 1.24 1.27 1.42 1.77 2.27 2.75 3.03 2.81 2.65 2.48 2.63 2.60 2.46 2.33 2.05 1.86 1.93 1.83 1.70 1.66 1.74 1.94 1.96 1.98 1.63 1.28 1.36 1.57 1.66 1.62 1.57 1.67 1.66 1.69
0.03 0.07 0.14 0.21 0.15 0.11 0.20 0.74 0.76 0.55 0.78 1.02 0.95 1.01 1.12 1.30 1.36 1.41 1.87 2.40 2.88 3.39 3.40 3.31 3.25 3.04 2.88 2.75 2.63 2.39 2.16 1.91 1.67 1.65 1.60 1.49 1.41 1.43 1.51 1.23 1.11 1.26 1.40 1.44 1.41 1.55 1.64 1.52 1.58
0.06 0.08 0.14 0.21 0.16 0.14 0.26 0.58 0.66 0.66 0.80 0.94 0.92 0.93 1.00 1.20 1.50 1.55 1.85 2.27 2.76 3.28 3.66 3.79 3.66 3.29 2.86 2.53 2.21 2.11 1.94 1.80 1.65 1.55 1.42 1.23 1.11 1.12 1.29 1.18 1.08 1.21 1.29 1.26 1.40 1.51 1.58 1.36 1.34
0.06 0.09 0.17 0.23 0.16 0.16 0.32 0.50 0.62 0.71 0.91 1.02 0.99 0.95 0.95 1.22 1.55 1.69 1.91 2.10 2.57 3.00 3.43 3.59 3.55 2.89 2.27 2.00 1.77 1.66 1.50 1.37 1.38 1.34 1.25 1.18 1.08 1.06 1.20 1.10 1.02 1.02 1.04 1.01 1.15 1.27 1.28 1.06 1.26
0.09 0.12 0.20 0.21 0.14 0.15 0.32 0.59 0.76 0.82 0.78 0.82 0.79 0.85 0.88 1.23 1.62 1.96 2.40 2.54 2.37 2.60 3.05 3.07 2.63 2.09 1.67 1.46 1.32 1.21 1.16 1.05 0.97 0.90 0.87 0.83 0.83 0.88 0.96 0.94 0.85 0.81 0.84 0.83 0.90 1.04 1.04 0.92 1.19
0.12 0.14 0.18 0.16 0.14 0.20 0.39 0.72 0.98 0.90 0.66 0.58 0.59 0.64 0.78 1.09 1.49 1.86 2.26 2.45 2.23 2.29 2.23 1.86 1.55 1.28 1.02 0.88 0.83 0.84 0.81 0.71 0.61 0.54 0.52 0.55 0.59 0.60 0.60 0.61 0.65 0.70 0.70 0.72 0.78 0.94 1.05 0.93 0.96
0.08 0.07 0.07 0.06 0.12 0.27 0.41 0.91 1.24 1.04 0.74 0.58 0.55 0.64 0.71 0.77 0.95 1.22 1.43 1.72 1.81 1.61 1.39 1.17 1.02 0.88 0.77 0.75 0.70 0.74 0.63 0.54 0.48 0.40 0.40 0.42 0.44 0.43 0.42 0.44 0.55 0.61 0.67 0.71 0.66 0.71 0.87 0.93 0.85
0.05 0.04 0.04 0.08 0.12 0.26 0.46 0.77 1.11 1.08 0.94 0.76 0.64 0.63 0.57 0.51 0.57 0.71 0.80 0.93 1.04 0.98 0.88 0.75 0.80 0.85 0.77 0.71 0.65 0.62 0.51 0.42 0.36 0.37 0.41 0.44 0.44 0.42 0.39 0.38 0.40 0.50 0.58 0.64 0.66 0.69 0.74 0.81 0.79
0.04 0.05 0.12 0.25 0.36 0.65 0.64 0.66 0.95 0.90 0.83 0.78 0.63 0.48 0.38 0.35 0.40 0.49 0.49 0.49 0.50 0.51 0.52 0.51 0.58 0.67 0.62 0.59 0.56 0.53 0.48 0.43 0.38 0.35 0.36 0.35 0.38 0.39 0.39 0.38 0.41 0.43 0.44 0.47 0.55 0.61 0.66 0.72 0.74
0.05 0.08 0.31 0.67 0.96 1.05 0.62 0.61 0.80 0.70 0.71 0.74 0.52 0.31 0.25 0.27 0.28 0.33 0.34 0.32 0.30 0.31 0.30 0.31 0.34 0.42 0.45 0.48 0.50 0.46 0.44 0.40 0.36 0.31 0.28 0.28 0.28 0.32 0.36 0.38 0.43 0.48 0.49 0.49 0.51 0.57 0.64 0.70 0.76
0.06 0.07 0.19 0.32 0.44 0.58 0.61 0.98 0.92 0.54 0.53 0.43 0.24 0.14 0.14 0.22 0.20 0.19 0.20 0.21 0.19 0.17 0.17 0.20 0.19 0.19 0.23 0.32 0.36 0.31 0.31 0.28 0.28 0.35 0.32 0.26 0.25 0.28 0.34 0.39 0.43 0.46 0.52 0.54 0.62 0.65 0.70 0.75 0.78
0.05 0.04 0.06 0.09 0.14 0.37 0.70 0.99 0.73 0.38 0.36 0.23 0.13 0.07 0.07 0.09 0.11 0.10 0.10 0.11 0.12 0.11 0.10 0.13 0.16 0.18 0.17 0.15 0.17 0.18 0.20 0.22 0.28 0.33 0.30 0.25 0.25 0.23 0.25 0.32 0.43 0.45 0.48 0.55 0.65 0.69 0.74 0.80 0.85
0.06 0.05 0.06 0.06 0.12 0.28 0.55 0.84 0.79 0.53 0.41 0.22 0.12 0.07 0.06 0.05 0.05 0.05 0.05 0.07 0.09 0.08 0.08 0.10 0.13 0.13 0.12 0.10 0.09 0.09 0.15 0.22 0.30 0.33 0.27 0.24 0.21 0.20 0.21 0.25 0.33 0.36 0.40 0.49 0.62 0.70 0.77 0.89 0.97
0.08 0.08 0.08 0.09 0.11 0.18 0.40 0.58 0.46 0.42 0.30 0.19 0.14 0.12 0.06 0.03 0.03 0.03 0.03 0.05 0.08 0.10 0.09 0.08 0.10 0.11 0.09 0.08 0.07 0.11 0.20 0.23 0.30 0.44 0.41 0.26 0.20 0.18 0.17 0.18 0.20 0.21 0.24 0.33 0.50 0.70 0.82 0.93 0.98
0.09 0.09 0.10 0.13 0.14 0.14 0.21 0.35 0.28 0.26 0.18 0.16 0.13 0.11 0.06 0.04 0.03 0.04 0.03 0.04 0.06 0.10 0.09 0.07 0.08 0.10 0.11 0.10 0.09 0.11 0.18 0.23 0.26 0.32 0.35 0.28 0.22 0.19 0.17 0.16 0.15 0.13 0.16 0.25 0.42 0.59 0.75 0.90 1.02

GEFSSGP_prec_meanprecacc_114.txt.gz
Total_Precipitation_Accumulation
0.00 0.01 0.07 0.23 0.59 1.01 1.13 0.65 0.46 0.35 0.31 0.41 0.42 0.38 0.43 0.54 0.64 0.86 0.50 0.16 0.05 0.01 0.02 0.06 0.09 0.07 0.06 0.07 0.09 0.11 0.11 0.12 0.10 0.09 0.07 0.05 0.04 0.04 0.05 0.05 0.05 0.05 0.06 0.06 0.05 0.05 0.04 0.04 0.04
0.00 0.01 0.08 0.25 0.72 1.44 1.29 0.60 0.36 0.24 0.33 0.48 0.57 0.51 0.40 0.42 0.31 0.22 0.22 0.26 0.07 0.02 0.02 0.03 0.08 0.08 0.06 0.06 0.08 0.10 0.11 0.11 0.10 0.08 0.07 0.07 0.06 0.05 0.06 0.05 0.06 0.08 0.07 0.05 0.04 0.04 0.04 0.03 0.04
0.00 0.02 0.10 0.24 0.55 0.88 0.86 0.48 0.25 0.22 0.32 0.51 0.57 0.43 0.36 0.42 0.30 0.17 0.14 0.14 0.08 0.04 0.02 0.03 0.06 0.07 0.07 0.07 0.07 0.08 0.09 0.10 0.09 0.08 0.07 0.07 0.07 0.07 0.07 0.07 0.08 0.09 0.07 0.05 0.04 0.03 0.03 0.03 0.04
0.00 0.03 0.09 0.18 0.25 0.34 0.33 0.28 0.23 0.23 0.34 0.40 0.48 0.44 0.32 0.34 0.27 0.18 0.15 0.11 0.08 0.05 0.04 0.06 0.07 0.08 0.08 0.07 0.07 0.07 0.08 0.08 0.08 0.08 0.07 0.07 0.07 0.07 0.08 0.08 0.08 0.09 0.08 0.06 0.05 0.03 0.03 0.04 0.05
0.00 0.02 0.06 0.12 0.16 0.22 0.23 0.25 0.26 0.30 0.38 0.49 0.58 0.60 0.51 0.31 0.25 0.28 0.31 0.23 0.14 0.10 0.08 0.08 0.10 0.11 0.09 0.08 0.07 0.08 0.07 0.08 0.08 0.08 0.08 0.07 0.08 0.09 0.08 0.09 0.07 0.09 0.08 0.07 0.05 0.04 0.04 0.05 0.06
0.00 0.01 0.03 0.06 0.09 0.14 0.21 0.22 0.26 0.34 0.46 0.65 0.67 0.59 0.54 0.40 0.36 0.37 0.35 0.39 0.39 0.25 0.18 0.12 0.15 0.15 0.13 0.12 0.11 0.11 0.10 0.10 0.09 0.08 0.08 0.08 0.09 0.10 0.09 0.09 0.08 0.11 0.12 0.09 0.07 0.05 0.04 0.05 0.06
0.01 0.01 0.02 0.03 0.06 0.09 0.13 0.22 0.32 0.35 0.47 0.64 0.54 0.50 0.60 0.61 0.55 0.48 0.40 0.45 0.38 0.33 0.30 0.23 0.17 0.16 0.16 0.18 0.18 0.16 0.13 0.13 0.11 0.09 0.09 0.09 0.10 0.12 0.12 0.12 0.12 0.13 0.15 0.15 0.12 0.08 0.07 0.07 0.07
0.00 0.01 0.01 0.01 0.02 0.07 0.07 0.13 0.24 0.31 0.46 0.48 0.48 0.62 0.88 0.77 0.49 0.48 0.50 0.49 0.43 0.42 0.37 0.35 0.29 0.24 0.19 0.18 0.20 0.21 0.19 0.16 0.13 0.13 0.13 0.14 0.16 0.18 0.19 0.18 0.19 0.21 0.22 0.22 0.21 0.18 0.16 0.16 0.16
0.00 0.00 0.00 0.00 0.01 0.03 0.07 0.14 0.21 0.29 0.39 0.49 0.61 0.70 0.73 0.61 0.46 0.56 0.66 0.68 0.71 0.60 0.42 0.34 0.36 0.32 0.25 0.20 0.19 0.21 0.22 0.21 0.18 0.20 0.21 0.24 0.33 0.46 0.52 0.51 0.54 0.52 0.49 0.47 0.42 0.42 0.40 0.34 0.25
0.00 0.00 0.00 0.00 0.01 0.02 0.06 0.15 0.28 0.35 0.46 0.69 1.00 1.05 0.73 0.65 0.61 0.69 0.87 0.87 1.05 0.84 0.53 0.42 0.34 0.33 0.28 0.23 0.30 0.32 0.33 0.36 0.33 0.45 0.52 0.60 0.73 0.75 0.63 0.84 0.94 0.92 0.98 0.89 0.84 0.99 0.85 0.62 0.53
0.00 0.00 0.00 0.00 0.01 0.02 0.06 0.13 0.19 0.32 0.64 1.07 1.21 1.07 0.83 0.91 0.93 0.89 1.07 1.06 0.95 0.83 0.82 0.71 0.49 0.44 0.42 0.47 0.42 0.44 0.52 0.67 0.64 0.67 0.82 1.01 0.96 0.81 0.72 0.87 1.15 1.31 1.43 1.37 1.46 1.55 1.16 1.11 1.24
0.00 0.00 0.00 0.01 0.01 0.02 0.03 0.06 0.12 0.33 0.79 0.95 0.93 0.88 0.85 1.04 1.04 1.10 1.32 1.29 1.31 1.09 1.14 1.19 0.85 0.80 0.73 0.74 0.68 0.62 0.66 0.83 0.96 1.13 1.19 1.35 1.37 1.22 1.07 1.10 1.31 1.49 1.65 1.95 1.97 1.85 1.70 1.67 1.58
0.00 0.00 0.00 0.00 0.01 0.05 0.03 0.07 0.23 0.50 0.72 0.63 0.52 0.77 0.83 1.06 1.30 1.50 1.57 1.41 1.66 1.67 1.65 1.65 1.30 1.20 1.18 1.22 1.18 1.02 1.06 1.14 1.24 1.45 1.58 1.68 1.83 1.77 1.67 1.58 1.54 1.45 1.63 1.95 2.15 2.08 2.07 2.02 1.90
0.00 0.00 0.00 0.01 0.02 0.04 0.07 0.15 0.33 0.56 0.52 0.49 0.63 1.02 1.21 1.12 1.39 1.75 1.76 1.73 1.98 2.10 2.12 2.07 1.89 1.87 1.76 1.69 1.69 1.63 1.40 1.38 1.39 1.50 1.56 1.74 1.95 2.16 2.24 2.13 1.95 1.65 1.63 1.74 2.07 2.20 2.32 2.21 2.07
0.00 0.01 0.04 0.06 0.06 0.06 0.09 0.32 0.46 0.53 0.44 0.51 0.74 1.04 1.35 1.26 1.40 1.66 1.82 2.10 2.51 2.79 2.64 2.52 2.42 2.55 2.41 2.18 1.98 1.77 1.67 1.67 1.72 1.74 1.71 1.89 2.12 2.31 2.31 2.09 1.77 1.57 1.65 1.74 1.70 1.75 2.05 1.84 1.70
0.01 0.04 0.14 0.16 0.11 0.09 0.15 0.55 0.65 0.59 0.71 0.82 1.00 1.09 1.28 1.32 1.38 1.58 1.95 2.53 3.11 3.46 3.18 2.94 2.64 2.74 2.74 2.57 2.40 2.10 1.92 1.98 1.87 1.73 1.69 1.78 1.98 1.99 2.00 1.66 1.30 1.38 1.59 1.67 1.63 1.58 1.69 1.68 1.71
0.03 0.07 0.14 0.21 0.15 0.12 0.21 0.75 0.76 0.55 0.79 1.04 0.98 1.04 1.18 1.38 1.48 1.57 2.05 2.66 3.19 3.74 3.76 3.60 3.48 3.19 3.02 2.89 2.74 2.49 2.26 1.99 1.73 1.68 1.63 1.52 1.45 1.45 1.53 1.25 1.12 1.27 1.41 1.45 1.42 1.56 1.65 1.53 1.60
0.06 0.08 0.14 0.21 0.16 0.15 0.27 0.59 0.66 0.67 0.81 0.96 0.95 0.97 1.06 1.28 1.60 1.67 1.99 2.49 3.08 3.63 4.03 4.10 3.89 3.48 3.02 2.68 2.36 2.25 2.07 1.89 1.71 1.58 1.45 1.26 1.15 1.14 1.30 1.20 1.09 1.22 1.30 1.27 1.41 1.52 1.60 1.37 1.35
0.06 0.09 0.18 0.23 0.16 0.17 0.32 0.50 0.63 0.72 0.93 1.04 1.01 0.98 1.00 1.28 1.62 1.79 2.04 2.30 2.89 3.38 3.86 3.96 3.83 3.12 2.46 2.15 1.91 1.79 1.61 1.45 1.44 1.38 1.27 1.20 1.10 1.08 1.21 1.11 1.02 1.02 1.04 1.01 1.16 1.28 1.29 1.07 1.27
0.09 0.12 0.20 0.22 0.14 0.16 0.33 0.59 0.77 0.83 0.79 0.84 0.81 0.86 0.91 1.27 1.67 2.03 2.50 2.73 2.65 2.97 3.46 3.42 2.92 2.35 1.90 1.64 1.49 1.36 1.29 1.16 1.06 0.96 0.91 0.86 0.86 0.89 0.96 0.94 0.85 0.81 0.84 0.83 0.90 1.04 1.04 0.93 1.20
0.12 0.14 0.18 0.16 0.14 0.21 0.39 0.73 0.99 0.91 0.66 0.59 0.61 0.65 0.80 1.11 1.53 1.90 2.31 2.57 2.45 2.64 2.64 2.20 1.81 1.49 1.25 1.10 1.01 1.00 0.94 0.82 0.67 0.58 0.55 0.58 0.62 0.62 0.61 0.61 0.65 0.70 0.70 0.72 0.78 0.94 1.07 0.94 0.97
0.08 0.08 0.07 0.07 0.12 0.28 0.42 0.91 1.24 1.04 0.74 0.59 0.57 0.65 0.72 0.79 0.98 1.25 1.46 1.78 1.95 1.89 1.71 1.49 1.28 1.06 0.95 0.92 0.84 0.84 0.71 0.61 0.52 0.43 0.43 0.44 0.45 0.44 0.43 0.45 0.55 0.62 0.67 0.71 0.67 0.72 0.88 0.93 0.85
0.05 0.04 0.05 0.08 0.12 0.26 0.47 0.77 1.11 1.08 0.94 0.76 0.64 0.64 0.58 0.52 0.59 0.74 0.83 0.98 1.17 1.24 1.17 1.02 1.06 1.04 0.93 0.85 0.77 0.73 0.59 0.48 0.41 0.42 0.45 0.46 0.45 0.43 0.39 0.39 0.41 0.50 0.58 0.64 0.66 0.69 0.74 0.81 0.80
0.04 0.05 0.12 0.25 0.37 0.65 0.64 0.66 0.95 0.90 0.83 0.78 0.63 0.49 0.39 0.35 0.42 0.51 0.52 0.56 0.64 0.71 0.75 0.75 0.79 0.86 0.77 0.73 0.70 0.65 0.57 0.50 0.43 0.40 0.39 0.38 0.39 0.39 0.39 0.39 0.41 0.43 0.44 0.48 0.55 0.61 0.66 0.72 0.74
0.05 0.09 0.31 0.67 0.96 1.05 0.62 0.61 0.80 0.70 0.71 0.74 0.52 0.31 0.25 0.27 0.29 0.35 0.36 0.37 0.41 0.42 0.45 0.47 0.51 0.56 0.55 0.58 0.61 0.58 0.54 0.48 0.41 0.34 0.31 0.30 0.29 0.32 0.36 0.38 0.43 0.48 0.49 0.49 0.51 0.57 0.64 0.70 0.76
0.06 0.07 0.19 0.32 0.44 0.58 0.62 0.98 0.92 0.54 0.53 0.43 0.24 0.14 0.14 0.22 0.21 0.21 0.22 0.23 0.24 0.21 0.25 0.28 0.28 0.30 0.32 0.42 0.48 0.42 0.39 0.34 0.31 0.38 0.35 0.29 0.26 0.29 0.35 0.40 0.43 0.46 0.52 0.55 0.62 0.65 0.70 0.75 0.78
0.05 0.05 0.06 0.09 0.14 0.37 0.70 0.99 0.73 0.38 0.36 0.23 0.13 0.07 0.07 0.09 0.12 0.12 0.12 0.13 0.15 0.15 0.15 0.17 0.21 0.25 0.25 0.24 0.28 0.30 0.28 0.27 0.30 0.35 0.32 0.27 0.26 0.24 0.25 0.32 0.43 0.45 0.48 0.56 0.65 0.69 0.74 0.80 0.85
0.06 0.06 0.06 0.07 0.13 0.28 0.56 0.85 0.79 0.53 0.41 0.23 0.12 0.07 0.06 0.05 0.06 0.07 0.07 0.09 0.12 0.13 0.14 0.17 0.20 0.20 0.19 0.17 0.15 0.14 0.20 0.26 0.33 0.35 0.28 0.25 0.23 0.21 0.22 0.26 0.33 0.37 0.40 0.49 0.62 0.70 0.77 0.89 0.97
0.08 0.08 0.09 0.10 0.12 0.19 0.41 0.58 0.46 0.42 0.30 0.19 0.14 0.13 0.07 0.04 0.03 0.04 0.04 0.06 0.10 0.13 0.14 0.15 0.17 0.18 0.16 0.15 0.14 0.16 0.23 0.26 0.33 0.46 0.43 0.27 0.21 0.20 0.18 0.19 0.21 0.22 0.25 0.33 0.50 0.71 0.83 0.94 0.99
0.09 0.10 0.11 0.14 0.15 0.15 0.22 0.35 0.28 0.26 0.19 0.17 0.13 0.12 0.07 0.04 0.04 0.04 0.04 0.06 0.09 0.13 0.14 0.13 0.16 0.17 0.17 0.18 0.15 0.16 0.23 0.26 0.28 0.34 0.37 0.29 0.24 0.22 0.19 0.17 0.16 0.14 0.17 0.26 0.43 0.60 0.76 0.91 1.02

GEFSSGP_prec_meanprecacc_120.txt.gz
Total_Precipitation_Accumulation
0.00 0.01 0.07 0.23 0.59 1.02 1.14 0.65 0.46 0.35 0.32 0.41 0.42 0.38 0.43 0.54 0.65 0.88 0.51 0.16 0.05 0.02 0.03 0.07 0.11 0.08 0.07 0.07 0.09 0.11 0.11 0.12 0.10 0.09 0.08 0.06 0.04 0.04 0.05 0.06 0.06 0.06 0.07 0.06 0.05 0.05 0.05 0.05 0.05
0.00 0.01 0.08 0.25 0.73 1.45 1.29 0.60 0.36 0.25 0.33 0.48 0.57 0.51 0.41 0.43 0.32 0.22 0.22 0.26 0.07 0.02 0.02 0.03 0.09 0.09 0.07 0.06 0.09 0.10 0.11 0.11 0.10 0.09 0.08 0.07 0.07 0.06 0.06 0.06 0.07 0.09 0.08 0.06 0.05 0.04 0.04 0.04 0.05
0.00 0.02 0.10 0.24 0.55 0.89 0.87 0.49 0.25 0.22 0.32 0.52 0.58 0.43 0.37 0.43 0.30 0.17 0.14 0.14 0.08 0.04 0.03 0.04 0.06 0.08 0.08 0.08 0.08 0.09 0.09 0.10 0.09 0.09 0.08 0.07 0.07 0.08 0.07 0.08 0.10 0.10 0.08 0.06 0.05 0.04 0.03 0.03 0.05
0.00 0.03 0.10 0.18 0.25 0.34 0.33 0.28 0.23 0.23 0.34 0.40 0.49 0.45 0.32 0.34 0.27 0.19 0.15 0.11 0.08 0.06 0.05 0.07 0.09 0.08 0.08 0.07 0.07 0.07 0.08 0.08 0.09 0.08 0.08 0.07 0.08 0.08 0.09 0.09 0.10 0.10 0.09 0.07 0.05 0.04 0.03 0.05 0.06
0.00 0.02 0.07 0.12 0.16 0.22 0.23 0.25 0.26 0.30 0.38 0.49 0.59 0.61 0.51 0.31 0.25 0.29 0.32 0.24 0.16 0.13 0.10 0.11 0.14 0.13 0.11 0.09 0.09 0.09 0.08 0.08 0.09 0.09 0.09 0.08 0.08 0.10 0.10 0.10 0.09 0.11 0.09 0.08 0.06 0.05 0.05 0.07 0.07
0.00 0.01 0.04 0.06 0.09 0.14 0.21 0.23 0.26 0.34 0.46 0.65 0.67 0.59 0.54 0.40 0.36 0.37 0.35 0.41 0.41 0.28 0.20 0.15 0.18 0.18 0.16 0.14 0.13 0.12 0.11 0.11 0.10 0.09 0.09 0.09 0.10 0.11 0.10 0.10 0.09 0.12 0.13 0.10 0.07 0.05 0.06 0.08 0.09
0.01 0.01 0.02 0.03 0.06 0.09 0.13 0.22 0.32 0.35 0.48 0.64 0.54 0.50 0.60 0.62 0.55 0.48 0.41 0.45 0.39 0.34 0.33 0.27 0.20 0.18 0.19 0.21 0.22 0.19 0.15 0.14 0.12 0.11 0.10 0.09 0.11 0.13 0.13 0.13 0.14 0.14 0.16 0.15 0.12 0.09 0.09 0.09 0.11
0.00 0.01 0.01 0.01 0.02 0.07 0.07 0.13 0.24 0.31 0.46 0.48 0.48 0.62 0.88 0.77 0.49 0.49 0.51 0.50 0.46 0.45 0.42 0.41 0.35 0.29 0.23 0.22 0.25 0.25 0.22 0.20 0.16 0.15 0.14 0.14 0.17 0.18 0.20 0.19 0.20 0.22 0.23 0.23 0.23 0.20 0.18 0.18 0.20
0.00 0.00 0.01 0.00 0.01 0.03 0.07 0.14 0.21 0.29 0.39 0.49 0.61 0.70 0.73 0.61 0.47 0.56 0.67 0.69 0.73 0.65 0.49 0.40 0.42 0.38 0.32 0.25 0.23 0.26 0.27 0.26 0.23 0.24 0.23 0.25 0.35 0.48 0.53 0.52 0.55 0.53 0.50 0.48 0.44 0.44 0.43 0.36 0.28
0.00 0.00 0.00 0.00 0.01 0.02 0.06 0.15 0.28 0.35 0.46 0.69 1.00 1.05 0.73 0.65 0.62 0.69 0.88 0.88 1.07 0.87 0.59 0.51 0.43 0.40 0.34 0.27 0.34 0.38 0.39 0.42 0.38 0.49 0.55 0.62 0.76 0.78 0.65 0.86 0.96 0.93 0.98 0.90 0.86 1.01 0.86 0.64 0.56
0.00 0.00 0.00 0.00 0.01 0.02 0.06 0.13 0.19 0.32 0.64 1.08 1.21 1.07 0.83 0.92 0.94 0.90 1.10 1.09 0.99 0.89 0.90 0.82 0.61 0.53 0.49 0.53 0.46 0.49 0.58 0.73 0.69 0.71 0.85 1.04 0.99 0.83 0.74 0.89 1.19 1.34 1.45 1.39 1.47 1.56 1.17 1.12 1.27
0.00 0.00 0.00 0.01 0.01 0.02 0.03 0.06 0.12 0.33 0.79 0.95 0.93 0.88 0.85 1.04 1.04 1.11 1.34 1.35 1.39 1.20 1.35 1.42 1.00 0.90 0.80 0.79 0.74 0.66 0.70 0.87 1.00 1.16 1.22 1.38 1.40 1.25 1.10 1.13 1.35 1.53 1.69 1.99 1.99 1.87 1.71 1.68 1.59
0.00 0.00 0.00 0.00 0.01 0.05 0.03 0.07 0.23 0.50 0.72 0.63 0.52 0.77 0.83 1.07 1.32 1.52 1.61 1.48 1.75 1.77 1.87 2.06 1.54 1.31 1.26 1.28 1.23 1.05 1.08 1.18 1.28 1.49 1.61 1.71 1.87 1.81 1.71 1.63 1.58 1.49 1.66 1.98 2.17 2.09 2.08 2.03 1.92
0.00 0.00 0.00 0.01 0.02 0.04 0.07 0.15 0.33 0.56 0.52 0.49 0.63 1.03 1.23 1.14 1.41 1.78 1.80 1.79 2.07 2.21 2.30 2.39 2.15 2.01 1.85 1.75 1.74 1.67 1.43 1.43 1.44 1.55 1.60 1.78 1.99 2.21 2.29 2.18 2.00 1.71 1.68 1.78 2.10 2.21 2.35 2.24 2.11
0.00 0.01 0.04 0.06 0.06 0.06 0.09 0.32 0.46 0.53 0.44 0.51 0.75 1.05 1.35 1.28 1.43 1.69 1.85 2.16 2.63 2.93 2.81 2.75 2.62 2.73 2.54 2.27 2.04 1.82 1.72 1.73 1.78 1.80 1.76 1.93 2.17 2.36 2.36 2.15 1.83 1.62 1.70 1.79 1.74 1.79 2.09 1.88 1.74
0.01 0.04 0.14 0.16 0.11 0.09 0.15 0.55 0.65 0.59 0.71 0.82 1.00 1.09 1.28 1.35 1.41 1.61 1.99 2.59 3.23 3.63 3.37 3.14 2.79 2.90 2.89 2.68 2.47 2.18 2.00 2.06 1.96 1.81 1.74 1.81 2.02 2.04 2.06 1.72 1.35 1.42 1.63 1.71 1.68 1.64 1.73 1.71 1.74
0.03 0.07 0.14 0.21 0.15 0.12 0.21 0.75 0.76 0.55 0.79 1.04 0.98 1.05 1.19 1.41 1.51 1.61 2.09 2.72 3.31 3.90 3.92 3.78 3.64 3.34 3.17 3.02 2.83 2.58 2.36 2.08 1.82 1.75 1.68 1.57 1.50 1.51 1.60 1.32 1.19 1.31 1.44 1.48 1.45 1.60 1.69 1.57 1.63
0.06 0.08 0.14 0.21 0.16 0.15 0.27 0.59 0.67 0.67 0.81 0.96 0.95 0.97 1.07 1.30 1.62 1.70 2.02 2.54 3.16 3.77 4.19 4.26 4.06 3.65 3.19 2.83 2.50 2.36 2.18 1.99 1.79 1.65 1.49 1.29 1.19 1.21 1.37 1.26 1.14 1.25 1.33 1.30 1.44 1.56 1.63 1.41 1.38
0.06 0.09 0.18 0.23 0.16 0.17 0.32 0.50 0.63 0.72 0.93 1.04 1.02 0.99 1.02 1.30 1.64 1.82 2.07 2.34 2.94 3.46 3.98 4.08 3.99 3.26 2.60 2.28 2.03 1.90 1.71 1.52 1.51 1.45 1.32 1.26 1.15 1.12 1.28 1.17 1.07 1.06 1.08 1.04 1.18 1.31 1.31 1.08 1.28
0.09 0.12 0.20 0.22 0.14 0.16 0.33 0.59 0.77 0.83 0.79 0.84 0.82 0.87 0.92 1.28 1.68 2.05 2.53 2.76 2.69 3.04 3.56 3.53 3.05 2.48 2.04 1.74 1.59 1.47 1.39 1.25 1.14 1.02 0.96 0.92 0.92 0.95 1.02 1.00 0.88 0.85 0.88 0.85 0.93 1.06 1.06 0.94 1.20
0.12 0.14 0.18 0.16 0.14 0.21 0.39 0.73 0.99 0.91 0.66 0.59 0.61 0.65 0.80 1.12 1.53 1.92 2.33 2.60 2.49 2.70 2.73 2.30 1.93 1.63 1.38 1.21 1.13 1.12 1.05 0.93 0.75 0.63 0.59 0.63 0.67 0.68 0.66 0.66 0.69 0.73 0.73 0.74 0.81 0.96 1.08 0.95 0.97
0.08 0.08 0.07 0.07 0.12 0.28 0.42 0.91 1.24 1.04 0.74 0.59 0.57 0.65 0.73 0.80 0.98 1.26 1.48 1.81 1.99 1.95 1.81 1.63 1.42 1.21 1.08 1.04 0.96 0.96 0.82 0.70 0.59 0.49 0.49 0.50 0.51 0.49 0.47 0.49 0.58 0.65 0.69 0.74 0.68 0.72 0.89 0.94 0.86
0.05 0.04 0.05 0.08 0.12 0.26 0.47 0.77 1.11 1.08 0.94 0.76 0.64 0.64 0.58 0.53 0.60 0.75 0.83 1.00 1.20 1.29 1.26 1.15 1.23 1.21 1.07 0.98 0.90 0.86 0.73 0.60 0.50 0.49 0.53 0.52 0.50 0.47 0.43 0.42 0.44 0.53 0.60 0.66 0.68 0.69 0.75 0.81 0.80
0.04 0.05 0.12 0.25 0.37 0.65 0.64 0.66 0.96 0.90 0.83 0.78 0.63 0.49 0.39 0.35 0.42 0.51 0.53 0.57 0.66 0.75 0.82 0.86 0.94 1.01 0.92 0.84 0.80 0.78 0.70 0.61 0.51 0.47 0.47 0.44 0.44 0.44 0.43 0.42 0.44 0.45 0.46 0.49 0.56 0.62 0.67 0.72 0.75
0.05 0.09 0.31 0.67 0.96 1.05 0.62 0.61 0.81 0.70 0.71 0.74 0.52 0.31 0.25 0.27 0.29 0.36 0.37 0.39 0.45 0.48 0.55 0.59 0.64 0.70 0.69 0.69 0.70 0.69 0.65 0.58 0.50 0.42 0.38 0.36 0.33 0.35 0.39 0.40 0.46 0.51 0.51 0.51 0.52 0.58 0.64 0.71 0.76
0.06 0.07 0.19 0.32 0.44 0.58 0.62 0.98 0.92 0.54 0.53 0.43 0.24 0.14 0.14 0.22 0.21 0.21 0.23 0.27 0.31 0.29 0.34 0.38 0.38 0.41 0.43 0.53 0.58 0.52 0.49 0.42 0.39 0.44 0.41 0.35 0.30 0.32 0.38 0.43 0.46 0.49 0.54 0.56 0.63 0.66 0.71 0.76 0.79
0.05 0.05 0.06 0.09 0.14 0.37 0.70 0.99 0.73 0.38 0.36 0.23 0.13 0.07 0.07 0.09 0.12 0.12 0.12 0.13 0.18 0.19 0.20 0.22 0.27 0.33 0.33 0.35 0.41 0.40 0.38 0.35 0.37 0.42 0.39 0.32 0.30 0.27 0.29 0.35 0.46 0.47 0.50 0.57 0.66 0.71 0.75 0.81 0.86
0.06 0.06 0.06 0.07 0.13 0.28 0.56 0.85 0.79 0.53 0.41 0.23 0.12 0.07 0.06 0.05 0.06 0.07 0.07 0.09 0.13 0.15 0.17 0.20 0.26 0.27 0.27 0.27 0.25 0.23 0.29 0.34 0.40 0.41 0.34 0.29 0.27 0.24 0.26 0.29 0.35 0.39 0.42 0.51 0.64 0.71 0.79 0.91 0.98
0.08 0.08 0.09 0.10 0.12 0.19 0.41 0.59 0.46 0.42 0.30 0.19 0.14 0.13 0.07 0.04 0.04 0.04 0.04 0.07 0.11 0.13 0.16 0.19 0.23 0.25 0.24 0.23 0.23 0.26 0.32 0.33 0.38 0.51 0.48 0.33 0.27 0.24 0.22 0.22 0.23 0.24 0.28 0.36 0.53 0.72 0.84 0.95 1.00
0.09 0.10 0.11 0.14 0.15 0.15 0.23 0.36 0.28 0.26 0.19 0.17 0.13 0.13 0.07 0.04 0.04 0.04 0.05 0.06 0.09 0.14 0.15 0.16 0.21 0.25 0.27 0.27 0.23 0.25 0.31 0.32 0.32 0.37 0.41 0.35 0.29 0.25 0.22 0.20 0.19 0.17 0.19 0.29 0.45 0.62 0.77 0.92 1.03

GEFSSGP_prec_meanprecacc_126.txt.gz
Total_Precipitation_Accumulation
0.00 0.01 0.07 0.24 0.73 1.19 1.22 0.66 0.46 0.35 0.32 0.41 0.42 0.38 0.43 0.56 0.70 1.01 0.54 0.16 0.05 0.02 0.03 0.07 0.11 0.08 0.07 0.08 0.10 0.13 0.12 0.13 0.12 0.11 0.09 0.06 0.05 0.05 0.06 0.08 0.08 0.09 0.09 0.08 0.07 0.07 0.06 0.06 0.07
0.00 0.01 0.08 0.31 0.93 1.59 1.32 0.61 0.36 0.25 0.33 0.48 0.57 0.51 0.41 0.43 0.33 0.23 0.22 0.26 0.07 0.02 0.02 0.03 0.09 0.09 0.07 0.07 0.09 0.12 0.12 0.13 0.12 0.10 0.10 0.08 0.08 0.07 0.08 0.08 0.09 0.11 0.10 0.07 0.07 0.05 0.05 0.05 0.06
0.00 0.02 0.10 0.33 0.67 0.97 0.88 0.49 0.25 0.22 0.32 0.52 0.58 0.43 0.37 0.43 0.30 0.17 0.14 0.15 0.08 0.04 0.03 0.04 0.07 0.08 0.09 0.08 0.09 0.09 0.10 0.11 0.11 0.10 0.09 0.09 0.10 0.10 0.09 0.10 0.12 0.12 0.10 0.08 0.07 0.05 0.04 0.05 0.06
0.00 0.03 0.12 0.23 0.29 0.35 0.33 0.28 0.23 0.23 0.34 0.40 0.49 0.45 0.32 0.34 0.28 0.19 0.15 0.12 0.08 0.06 0.05 0.07 0.09 0.09 0.09 0.08 0.08 0.08 0.09 0.09 0.10 0.10 0.10 0.10 0.10 0.10 0.11 0.11 0.12 0.13 0.10 0.08 0.06 0.05 0.04 0.05 0.07
0.00 0.02 0.10 0.16 0.18 0.22 0.23 0.25 0.26 0.31 0.38 0.49 0.59 0.61 0.52 0.31 0.25 0.29 0.32 0.24 0.17 0.14 0.12 0.11 0.14 0.14 0.12 0.10 0.10 0.09 0.09 0.09 0.10 0.11 0.10 0.09 0.10 0.12 0.12 0.11 0.11 0.13 0.11 0.09 0.06 0.05 0.06 0.07 0.08
0.00 0.02 0.05 0.08 0.10 0.14 0.22 0.23 0.26 0.34 0.46 0.66 0.67 0.60 0.55 0.41 0.36 0.37 0.35 0.41 0.43 0.29 0.21 0.16 0.18 0.19 0.17 0.15 0.14 0.13 0.12 0.12 0.12 0.11 0.11 0.10 0.12 0.12 0.12 0.10 0.11 0.14 0.15 0.11 0.08 0.06 0.07 0.09 0.10
0.01 0.02 0.03 0.03 0.06 0.10 0.14 0.22 0.32 0.35 0.48 0.64 0.54 0.51 0.63 0.64 0.57 0.49 0.41 0.46 0.40 0.35 0.34 0.28 0.20 0.19 0.20 0.22 0.23 0.21 0.17 0.17 0.16 0.13 0.12 0.11 0.13 0.14 0.14 0.14 0.15 0.16 0.17 0.16 0.13 0.10 0.10 0.11 0.12
0.00 0.01 0.01 0.01 0.03 0.07 0.08 0.14 0.24 0.31 0.46 0.48 0.48 0.63 0.93 0.80 0.53 0.50 0.51 0.51 0.48 0.48 0.44 0.43 0.37 0.32 0.25 0.24 0.27 0.28 0.26 0.24 0.21 0.18 0.16 0.16 0.18 0.20 0.21 0.20 0.22 0.23 0.24 0.23 0.24 0.21 0.19 0.19 0.20
0.00 0.01 0.01 0.01 0.01 0.03 0.07 0.14 0.21 0.29 0.39 0.49 0.62 0.70 0.75 0.61 0.47 0.57 0.68 0.70 0.75 0.67 0.52 0.45 0.46 0.43 0.36 0.27 0.25 0.29 0.30 0.29 0.27 0.28 0.27 0.29 0.40 0.51 0.56 0.54 0.57 0.55 0.52 0.49 0.45 0.45 0.43 0.37 0.28
0.00 0.00 0.01 0.00 0.01 0.02 0.06 0.15 0.28 0.35 0.46 0.70 1.04 1.09 0.76 0.66 0.62 0.70 0.89 0.90 1.08 0.90 0.63 0.56 0.46 0.43 0.38 0.30 0.37 0.42 0.43 0.46 0.43 0.54 0.60 0.72 0.87 0.85 0.70 0.89 0.99 0.96 1.00 0.91 0.87 1.02 0.87 0.65 0.57
0.00 0.00 0.00 0.00 0.01 0.02 0.06 0.13 0.19 0.32 0.66 1.10 1.24 1.10 0.85 0.92 0.94 0.91 1.12 1.12 1.03 0.94 0.97 0.91 0.72 0.60 0.55 0.60 0.53 0.54 0.63 0.78 0.75 0.77 0.92 1.16 1.08 0.90 0.80 0.93 1.23 1.38 1.47 1.41 1.49 1.57 1.18 1.13 1.29
0.00 0.00 0.00 0.01 0.01 0.02 0.03 0.06 0.12 0.34 0.81 0.97 0.94 0.89 0.86 1.04 1.05 1.12 1.37 1.40 1.44 1.28 1.46 1.56 1.22 1.08 0.92 0.87 0.80 0.72 0.73 0.90 1.05 1.22 1.28 1.45 1.48 1.33 1.17 1.21 1.41 1.59 1.73 2.04 2.03 1.90 1.74 1.69 1.60
0.00 0.00 0.00 0.00 0.01 0.05 0.03 0.07 0.23 0.51 0.73 0.64 0.53 0.77 0.84 1.09 1.33 1.54 1.66 1.54 1.81 1.86 1.99 2.22 1.76 1.52 1.40 1.40 1.32 1.11 1.13 1.21 1.32 1.54 1.66 1.76 1.93 1.88 1.79 1.71 1.66 1.55 1.72 2.05 2.24 2.13 2.12 2.05 1.93
0.00 0.00 0.00 0.01 0.02 0.04 0.07 0.15 0.34 0.58 0.53 0.49 0.63 1.03 1.23 1.16 1.45 1.83 1.90 1.89 2.16 2.31 2.42 2.54 2.39 2.26 2.03 1.87 1.84 1.75 1.49 1.49 1.49 1.60 1.63 1.82 2.05 2.28 2.36 2.24 2.09 1.78 1.74 1.84 2.15 2.25 2.38 2.27 2.13
0.00 0.01 0.04 0.06 0.06 0.06 0.09 0.33 0.48 0.57 0.45 0.52 0.75 1.05 1.36 1.30 1.46 1.73 1.90 2.27 2.78 3.06 2.95 2.93 2.88 3.01 2.76 2.42 2.15 1.91 1.78 1.78 1.84 1.87 1.81 1.97 2.21 2.42 2.42 2.20 1.87 1.67 1.75 1.83 1.77 1.82 2.13 1.91 1.76
0.01 0.04 0.14 0.16 0.11 0.09 0.15 0.55 0.67 0.61 0.72 0.82 1.00 1.09 1.29 1.36 1.43 1.64 2.04 2.67 3.37 3.78 3.56 3.36 3.01 3.15 3.12 2.87 2.62 2.30 2.08 2.12 2.01 1.86 1.78 1.85 2.06 2.07 2.11 1.76 1.39 1.46 1.67 1.74 1.72 1.67 1.76 1.74 1.78
0.03 0.07 0.14 0.21 0.15 0.12 0.21 0.75 0.77 0.56 0.79 1.04 0.98 1.05 1.20 1.42 1.53 1.64 2.12 2.79 3.41 4.03 4.11 4.03 3.90 3.56 3.40 3.23 3.01 2.74 2.49 2.19 1.88 1.79 1.72 1.60 1.52 1.53 1.63 1.36 1.24 1.34 1.47 1.50 1.47 1.63 1.74 1.63 1.68
0.06 0.09 0.14 0.22 0.16 0.15 0.27 0.59 0.67 0.68 0.81 0.96 0.95 0.97 1.07 1.32 1.64 1.72 2.06 2.62 3.26 3.89 4.34 4.47 4.39 3.94 3.49 3.08 2.72 2.56 2.33 2.11 1.89 1.73 1.55 1.33 1.22 1.22 1.39 1.28 1.16 1.28 1.36 1.34 1.49 1.61 1.68 1.46 1.42
0.06 0.09 0.18 0.23 0.16 0.17 0.32 0.50 0.63 0.72 0.93 1.05 1.02 0.99 1.03 1.32 1.67 1.85 2.12 2.42 3.02 3.57 4.11 4.22 4.22 3.59 2.93 2.53 2.23 2.08 1.85 1.63 1.59 1.51 1.37 1.29 1.19 1.15 1.30 1.20 1.10 1.09 1.12 1.10 1.24 1.35 1.35 1.12 1.32
0.09 0.12 0.20 0.22 0.14 0.16 0.33 0.59 0.77 0.83 0.79 0.84 0.82 0.87 0.93 1.30 1.70 2.09 2.58 2.84 2.77 3.12 3.67 3.67 3.20 2.75 2.31 1.97 1.78 1.64 1.53 1.35 1.22 1.08 1.02 0.95 0.94 0.98 1.04 1.02 0.91 0.89 0.93 0.90 0.98 1.11 1.10 0.97 1.22
0.12 0.14 0.18 0.16 0.14 0.21 0.39 0.73 1.00 0.93 0.67 0.60 0.62 0.65 0.80 1.13 1.54 1.94 2.37 2.67 2.58 2.78 2.81 2.40 2.07 1.83 1.60 1.44 1.35 1.32 1.22 1.04 0.84 0.70 0.65 0.66 0.69 0.70 0.69 0.69 0.72 0.78 0.76 0.79 0.85 1.00 1.10 0.98 1.00
0.08 0.08 0.07 0.07 0.12 0.28 0.42 0.92 1.26 1.07 0.78 0.62 0.58 0.66 0.73 0.80 0.99 1.28 1.50 1.84 2.04 2.01 1.88 1.74 1.56 1.37 1.27 1.26 1.17 1.14 0.93 0.79 0.67 0.54 0.55 0.57 0.55 0.53 0.50 0.52 0.62 0.69 0.72 0.79 0.71 0.75 0.92 0.98 0.89
0.05 0.04 0.05 0.08 0.12 0.27 0.47 0.78 1.13 1.12 1.02 0.84 0.67 0.65 0.58 0.53 0.61 0.75 0.85 1.01 1.22 1.33 1.33 1.25 1.35 1.37 1.25 1.16 1.08 1.05 0.89 0.73 0.59 0.55 0.60 0.59 0.55 0.51 0.45 0.45 0.48 0.57 0.64 0.71 0.71 0.73 0.77 0.83 0.82
0.04 0.05 0.12 0.25 0.37 0.68 0.67 0.69 0.99 0.95 0.88 0.84 0.64 0.49 0.39 0.35 0.43 0.53 0.54 0.58 0.68 0.78 0.86 0.93 1.04 1.15 1.10 1.02 0.97 0.94 0.85 0.74 0.60 0.54 0.54 0.50 0.48 0.47 0.45 0.45 0.47 0.48 0.50 0.53 0.59 0.64 0.68 0.74 0.76
0.05 0.09 0.32 0.69 0.99 1.13 0.69 0.64 0.82 0.70 0.72 0.74 0.53 0.31 0.25 0.27 0.30 0.37 0.39 0.40 0.46 0.50 0.58 0.65 0.74 0.84 0.86 0.85 0.85 0.84 0.81 0.71 0.59 0.48 0.44 0.41 0.36 0.38 0.42 0.44 0.50 0.54 0.54 0.53 0.55 0.59 0.66 0.72 0.77
0.06 0.07 0.19 0.34 0.48 0.66 0.68 1.02 0.94 0.54 0.53 0.43 0.24 0.14 0.14 0.22 0.21 0.22 0.23 0.27 0.33 0.31 0.38 0.45 0.47 0.53 0.58 0.68 0.76 0.68 0.64 0.53 0.46 0.51 0.47 0.39 0.32 0.35 0.42 0.48 0.50 0.52 0.57 0.58 0.65 0.67 0.72 0.78 0.80
0.05 0.05 0.06 0.09 0.15 0.40 0.74 1.04 0.76 0.39 0.36 0.23 0.13 0.07 0.07 0.09 0.12 0.12 0.12 0.14 0.19 0.21 0.24 0.29 0.38 0.44 0.44 0.48 0.57 0.58 0.52 0.45 0.45 0.48 0.45 0.37 0.34 0.30 0.34 0.40 0.50 0.51 0.54 0.60 0.69 0.73 0.78 0.84 0.88
0.06 0.06 0.06 0.07 0.14 0.29 0.58 0.89 0.86 0.58 0.42 0.23 0.12 0.07 0.06 0.05 0.06 0.07 0.07 0.09 0.14 0.17 0.21 0.28 0.35 0.38 0.38 0.37 0.36 0.36 0.42 0.45 0.49 0.49 0.41 0.36 0.33 0.30 0.32 0.33 0.40 0.42 0.46 0.55 0.68 0.75 0.82 0.94 1.00
0.08 0.08 0.09 0.10 0.12 0.20 0.43 0.62 0.51 0.47 0.33 0.20 0.14 0.13 0.07 0.04 0.04 0.04 0.04 0.07 0.12 0.15 0.20 0.25 0.30 0.34 0.33 0.32 0.33 0.38 0.42 0.44 0.48 0.60 0.56 0.41 0.35 0.31 0.29 0.27 0.28 0.28 0.32 0.40 0.57 0.75 0.87 0.98 1.02
0.09 0.10 0.11 0.14 0.16 0.16 0.24 0.39 0.32 0.29 0.22 0.20 0.14 0.13 0.07 0.04 0.04 0.04 0.05 0.06 0.10 0.17 0.19 0.22 0.29 0.31 0.34 0.35 0.34 0.37 0.43 0.43 0.42 0.46 0.49 0.42 0.35 0.32 0.28 0.27 0.25 0.21 0.23 0.33 0.49 0.65 0.80 0.95 1.06

GEFSSGP_prec_meanprecacc_132.txt.gz
Total_Precipitation_Accumulation
0.00 0.03 0.11 0.34 0.99 1.36 1.30 0.69 0.48 0.36 0.33 0.43 0.43 0.38 0.44 0.57 0.72 1.06 0.59 0.19 0.06 0.02 0.03 0.07 0.11 0.08 0.07 0.08 0.10 0.13 0.13 0.14 0.12 0.11 0.10 0.07 0.05 0.06 0.07 0.08 0.09 0.09 0.10 0.09 0.08 0.07 0.07 0.07 0.08
0.00 0.03 0.14 0.48 1.22 1.82 1.40 0.64 0.37 0.25 0.33 0.49 0.58 0.52 0.41 0.44 0.33 0.24 0.25 0.34 0.09 0.02 0.02 0.03 0.09 0.09 0.08 0.07 0.09 0.12 0.13 0.13 0.12 0.11 0.10 0.09 0.08 0.08 0.09 0.09 0.10 0.11 0.11 0.08 0.07 0.06 0.06 0.06 0.07
0.01 0.06 0.20 0.55 0.92 1.14 0.96 0.52 0.27 0.22 0.32 0.52 0.59 0.44 0.38 0.46 0.33 0.18 0.17 0.21 0.10 0.05 0.03 0.04 0.07 0.08 0.09 0.09 0.09 0.10 0.11 0.11 0.11 0.11 0.10 0.10 0.10 0.11 0.10 0.11 0.13 0.13 0.11 0.09 0.07 0.05 0.05 0.06 0.08
0.02 0.07 0.22 0.41 0.48 0.43 0.38 0.30 0.24 0.24 0.35 0.41 0.50 0.49 0.35 0.36 0.30 0.20 0.17 0.17 0.10 0.07 0.06 0.07 0.09 0.09 0.09 0.08 0.08 0.08 0.09 0.10 0.11 0.10 0.11 0.11 0.11 0.11 0.12 0.12 0.14 0.14 0.11 0.08 0.07 0.05 0.05 0.06 0.08
0.02 0.06 0.19 0.32 0.27 0.27 0.29 0.28 0.28 0.32 0.39 0.50 0.60 0.66 0.57 0.34 0.27 0.31 0.34 0.29 0.20 0.15 0.12 0.11 0.14 0.14 0.12 0.10 0.10 0.10 0.09 0.10 0.11 0.12 0.11 0.10 0.12 0.13 0.14 0.13 0.13 0.14 0.12 0.09 0.07 0.05 0.06 0.08 0.09
0.01 0.04 0.12 0.18 0.16 0.18 0.26 0.27 0.27 0.35 0.46 0.66 0.68 0.66 0.60 0.45 0.40 0.42 0.40 0.46 0.46 0.30 0.21 0.16 0.19 0.20 0.17 0.15 0.15 0.13 0.12 0.13 0.12 0.11 0.11 0.11 0.12 0.13 0.13 0.12 0.13 0.16 0.15 0.11 0.08 0.06 0.07 0.10 0.11
0.01 0.04 0.07 0.11 0.11 0.13 0.16 0.25 0.34 0.36 0.48 0.64 0.55 0.54 0.68 0.69 0.61 0.54 0.47 0.52 0.44 0.36 0.35 0.29 0.21 0.19 0.21 0.24 0.24 0.21 0.18 0.18 0.17 0.13 0.12 0.12 0.13 0.15 0.15 0.15 0.16 0.17 0.17 0.16 0.14 0.10 0.10 0.11 0.13
0.01 0.02 0.03 0.07 0.06 0.10 0.11 0.16 0.26 0.33 0.46 0.50 0.50 0.67 1.00 0.86 0.57 0.54 0.56 0.56 0.52 0.51 0.47 0.44 0.38 0.32 0.26 0.25 0.28 0.29 0.27 0.24 0.21 0.18 0.17 0.17 0.20 0.21 0.22 0.21 0.23 0.25 0.25 0.24 0.24 0.21 0.19 0.19 0.21
0.00 0.01 0.03 0.03 0.03 0.07 0.10 0.16 0.23 0.32 0.40 0.51 0.65 0.75 0.80 0.65 0.51 0.61 0.72 0.74 0.79 0.73 0.62 0.52 0.47 0.44 0.36 0.28 0.26 0.30 0.31 0.30 0.27 0.28 0.28 0.30 0.40 0.52 0.57 0.54 0.58 0.56 0.53 0.50 0.45 0.45 0.43 0.37 0.29
0.00 0.01 0.04 0.02 0.02 0.04 0.07 0.16 0.30 0.37 0.48 0.74 1.10 1.17 0.86 0.71 0.65 0.73 0.91 0.92 1.13 0.96 0.71 0.62 0.49 0.44 0.39 0.31 0.37 0.43 0.44 0.47 0.43 0.55 0.61 0.73 0.88 0.86 0.71 0.91 1.01 0.98 1.01 0.92 0.87 1.02 0.87 0.66 0.58
0.00 0.00 0.00 0.01 0.01 0.02 0.07 0.14 0.21 0.35 0.68 1.12 1.28 1.14 0.89 0.97 0.97 0.93 1.14 1.16 1.09 1.01 1.05 0.98 0.77 0.63 0.56 0.61 0.53 0.55 0.63 0.79 0.76 0.77 0.93 1.16 1.08 0.91 0.81 0.94 1.25 1.40 1.49 1.41 1.49 1.58 1.20 1.16 1.34
0.00 0.00 0.00 0.01 0.01 0.03 0.03 0.06 0.14 0.36 0.84 0.99 0.97 0.92 0.87 1.06 1.07 1.14 1.40 1.46 1.52 1.36 1.54 1.66 1.34 1.20 1.00 0.90 0.81 0.73 0.74 0.90 1.05 1.23 1.29 1.46 1.49 1.35 1.19 1.22 1.42 1.59 1.74 2.05 2.04 1.92 1.77 1.74 1.65
0.00 0.00 0.00 0.00 0.02 0.05 0.03 0.07 0.24 0.54 0.76 0.67 0.56 0.80 0.86 1.11 1.37 1.58 1.72 1.67 1.92 1.95 2.08 2.31 1.89 1.71 1.58 1.51 1.36 1.13 1.15 1.23 1.33 1.55 1.67 1.77 1.94 1.90 1.81 1.72 1.67 1.56 1.73 2.06 2.25 2.15 2.16 2.09 1.96
0.00 0.00 0.00 0.01 0.02 0.04 0.07 0.15 0.35 0.62 0.56 0.53 0.69 1.08 1.27 1.19 1.48 1.87 1.97 2.03 2.33 2.45 2.53 2.62 2.48 2.40 2.21 2.00 1.91 1.80 1.52 1.51 1.52 1.61 1.64 1.83 2.06 2.29 2.37 2.26 2.10 1.81 1.76 1.86 2.17 2.28 2.41 2.30 2.16
0.00 0.01 0.04 0.06 0.06 0.06 0.09 0.33 0.48 0.59 0.48 0.55 0.79 1.13 1.45 1.36 1.50 1.77 1.95 2.37 3.00 3.26 3.08 3.02 2.97 3.13 2.92 2.54 2.24 1.97 1.82 1.81 1.88 1.90 1.82 1.98 2.23 2.43 2.44 2.22 1.89 1.69 1.77 1.86 1.80 1.86 2.16 1.93 1.79
0.01 0.04 0.14 0.16 0.11 0.10 0.16 0.55 0.67 0.63 0.74 0.85 1.04 1.21 1.47 1.45 1.49 1.70 2.12 2.79 3.59 3.99 3.75 3.52 3.14 3.28 3.28 3.01 2.72 2.40 2.17 2.18 2.08 1.91 1.81 1.87 2.08 2.08 2.13 1.77 1.41 1.48 1.70 1.76 1.74 1.69 1.79 1.77 1.81
0.03 0.07 0.14 0.21 0.15 0.13 0.22 0.76 0.78 0.57 0.83 1.08 1.02 1.18 1.39 1.52 1.60 1.70 2.25 2.96 3.63 4.23 4.32 4.26 4.11 3.75 3.57 3.38 3.14 2.90 2.66 2.30 1.95 1.84 1.75 1.63 1.54 1.54 1.64 1.37 1.26 1.36 1.49 1.53 1.49 1.65 1.75 1.64 1.70
0.06 0.09 0.15 0.22 0.17 0.16 0.28 0.59 0.68 0.69 0.83 0.99 0.99 1.03 1.14 1.38 1.68 1.77 2.13 2.73 3.39 4.05 4.53 4.72 4.64 4.19 3.71 3.28 2.89 2.76 2.53 2.25 1.99 1.80 1.58 1.35 1.24 1.23 1.40 1.29 1.18 1.29 1.38 1.36 1.51 1.63 1.69 1.47 1.43
0.06 0.09 0.18 0.23 0.17 0.18 0.33 0.51 0.64 0.73 0.95 1.09 1.08 1.04 1.07 1.35 1.71 1.90 2.18 2.53 3.13 3.69 4.28 4.40 4.46 3.87 3.20 2.78 2.44 2.28 2.04 1.79 1.72 1.62 1.45 1.34 1.22 1.17 1.32 1.21 1.11 1.11 1.14 1.12 1.25 1.36 1.36 1.13 1.32
0.09 0.12 0.20 0.22 0.15 0.16 0.33 0.60 0.78 0.85 0.82 0.89 0.89 0.92 0.97 1.36 1.76 2.14 2.64 2.91 2.85 3.22 3.80 3.82 3.39 2.98 2.58 2.21 2.00 1.83 1.71 1.52 1.36 1.19 1.10 1.02 0.99 1.02 1.06 1.03 0.92 0.90 0.94 0.92 0.99 1.12 1.11 0.98 1.23
0.12 0.14 0.18 0.16 0.15 0.21 0.39 0.74 1.01 0.94 0.69 0.63 0.66 0.70 0.84 1.18 1.59 1.99 2.42 2.72 2.64 2.86 2.90 2.50 2.21 2.04 1.88 1.67 1.56 1.54 1.45 1.26 1.00 0.82 0.73 0.72 0.73 0.73 0.71 0.70 0.73 0.78 0.77 0.80 0.86 1.01 1.11 0.99 1.00
0.08 0.08 0.07 0.07 0.12 0.28 0.42 0.93 1.28 1.09 0.81 0.65 0.63 0.72 0.79 0.87 1.03 1.31 1.54 1.88 2.08 2.07 1.94 1.81 1.65 1.54 1.54 1.48 1.37 1.32 1.08 0.92 0.75 0.61 0.61 0.63 0.60 0.56 0.53 0.53 0.63 0.69 0.72 0.79 0.72 0.77 0.93 0.99 0.89
0.05 0.04 0.05 0.08 0.12 0.27 0.47 0.79 1.16 1.15 1.08 0.90 0.74 0.72 0.64 0.57 0.63 0.78 0.88 1.05 1.26 1.37 1.38 1.32 1.43 1.47 1.43 1.33 1.28 1.26 1.05 0.85 0.69 0.63 0.67 0.65 0.61 0.54 0.47 0.46 0.48 0.57 0.64 0.71 0.72 0.75 0.78 0.84 0.82
0.04 0.05 0.12 0.25 0.37 0.69 0.68 0.72 1.04 1.00 0.93 0.91 0.72 0.55 0.44 0.39 0.46 0.55 0.56 0.60 0.71 0.80 0.90 0.98 1.09 1.21 1.20 1.14 1.12 1.15 1.06 0.89 0.72 0.63 0.60 0.55 0.52 0.50 0.48 0.46 0.47 0.49 0.50 0.53 0.61 0.65 0.69 0.74 0.76
0.05 0.09 0.32 0.69 1.00 1.16 0.72 0.68 0.88 0.75 0.76 0.79 0.57 0.34 0.28 0.29 0.32 0.38 0.40 0.42 0.48 0.53 0.61 0.68 0.78 0.88 0.92 0.93 0.96 0.98 1.01 0.87 0.71 0.56 0.51 0.46 0.40 0.41 0.45 0.45 0.51 0.55 0.55 0.55 0.56 0.61 0.67 0.73 0.78
0.06 0.07 0.19 0.34 0.49 0.68 0.72 1.07 1.00 0.62 0.58 0.47 0.28 0.17 0.16 0.24 0.23 0.23 0.25 0.28 0.34 0.32 0.39 0.47 0.51 0.57 0.64 0.77 0.86 0.80 0.82 0.71 0.60 0.62 0.54 0.43 0.34 0.36 0.45 0.50 0.52 0.54 0.59 0.60 0.68 0.69 0.73 0.79 0.81
0.05 0.05 0.06 0.10 0.15 0.42 0.79 1.14 0.93 0.50 0.45 0.30 0.18 0.11 0.11 0.13 0.15 0.14 0.14 0.15 0.20 0.22 0.25 0.31 0.42 0.50 0.52 0.56 0.67 0.70 0.68 0.62 0.61 0.61 0.56 0.44 0.38 0.33 0.36 0.44 0.54 0.55 0.57 0.63 0.72 0.75 0.79 0.86 0.89
0.06 0.06 0.06 0.07 0.14 0.32 0.65 1.00 1.00 0.68 0.50 0.30 0.20 0.14 0.15 0.14 0.12 0.11 0.09 0.11 0.16 0.19 0.22 0.30 0.39 0.48 0.55 0.52 0.51 0.52 0.62 0.64 0.67 0.64 0.52 0.46 0.41 0.37 0.38 0.39 0.45 0.48 0.50 0.59 0.72 0.78 0.85 0.97 1.03
0.08 0.08 0.09 0.10 0.12 0.21 0.48 0.70 0.57 0.52 0.38 0.26 0.23 0.24 0.18 0.13 0.09 0.07 0.07 0.09 0.15 0.19 0.22 0.28 0.35 0.49 0.59 0.52 0.49 0.53 0.60 0.63 0.65 0.73 0.66 0.51 0.45 0.39 0.36 0.33 0.34 0.35 0.37 0.44 0.60 0.78 0.90 1.01 1.05
0.10 0.10 0.11 0.14 0.16 0.17 0.26 0.43 0.35 0.37 0.30 0.29 0.23 0.22 0.16 0.13 0.11 0.09 0.08 0.11 0.17 0.23 0.26 0.31 0.39 0.47 0.53 0.50 0.47 0.50 0.56 0.58 0.59 0.62 0.63 0.56 0.46 0.39 0.35 0.34 0.33 0.27 0.27 0.37 0.52 0.68 0.84 0.99 1.10

GEFSSGP_prec_meanprecacc_138.txt.gz
Total_Precipitation_Accumulation
0.00 0.03 0.12 0.35 1.00 1.37 1.32 0.71 0.49 0.37 0.35 0.44 0.44 0.39 0.44 0.57 0.72 1.07 0.59 0.19 0.06 0.02 0.03 0.08 0.11 0.08 0.07 0.08 0.10 0.13 0.13 0.14 0.12 0.11 0.10 0.07 0.06 0.06 0.07 0.09 0.10 0.11 0.11 0.10 0.09 0.08 0.09 0.09 0.10
0.00 0.03 0.14 0.49 1.23 1.83 1.41 0.66 0.40 0.27 0.35 0.50 0.58 0.52 0.41 0.44 0.33 0.24 0.25 0.34 0.10 0.03 0.03 0.04 0.09 0.10 0.08 0.07 0.10 0.12 0.13 0.13 0.12 0.11 0.10 0.09 0.09 0.09 0.09 0.10 0.12 0.13 0.12 0.10 0.09 0.08 0.08 0.07 0.08
0.01 0.06 0.20 0.55 0.93 1.17 0.98 0.53 0.29 0.24 0.34 0.53 0.59 0.44 0.38 0.47 0.33 0.18 0.17 0.22 0.11 0.06 0.03 0.04 0.07 0.09 0.09 0.09 0.09 0.10 0.11 0.11 0.11 0.11 0.10 0.10 0.11 0.12 0.11 0.12 0.14 0.14 0.12 0.10 0.09 0.07 0.06 0.07 0.09
0.02 0.08 0.22 0.41 0.49 0.45 0.39 0.32 0.27 0.27 0.37 0.41 0.50 0.49 0.35 0.37 0.30 0.20 0.18 0.17 0.11 0.08 0.06 0.08 0.10 0.10 0.09 0.09 0.09 0.09 0.09 0.10 0.11 0.11 0.11 0.12 0.12 0.12 0.14 0.14 0.15 0.15 0.12 0.09 0.08 0.07 0.06 0.07 0.09
0.02 0.07 0.19 0.33 0.28 0.28 0.30 0.30 0.31 0.35 0.40 0.50 0.60 0.66 0.57 0.34 0.27 0.31 0.35 0.30 0.20 0.16 0.13 0.12 0.15 0.15 0.12 0.11 0.11 0.11 0.10 0.11 0.12 0.13 0.13 0.12 0.13 0.16 0.16 0.15 0.14 0.15 0.13 0.09 0.08 0.07 0.07 0.09 0.12
0.01 0.04 0.12 0.18 0.16 0.19 0.27 0.29 0.29 0.36 0.48 0.67 0.69 0.66 0.60 0.46 0.41 0.43 0.41 0.47 0.46 0.30 0.22 0.17 0.20 0.21 0.18 0.16 0.16 0.15 0.14 0.14 0.14 0.13 0.13 0.13 0.14 0.15 0.15 0.15 0.15 0.17 0.16 0.12 0.09 0.07 0.09 0.12 0.14
0.01 0.04 0.08 0.12 0.11 0.14 0.18 0.27 0.37 0.39 0.50 0.65 0.56 0.54 0.68 0.69 0.61 0.54 0.48 0.52 0.44 0.37 0.35 0.30 0.22 0.21 0.22 0.25 0.26 0.24 0.20 0.20 0.18 0.14 0.13 0.13 0.15 0.17 0.17 0.17 0.19 0.20 0.19 0.17 0.14 0.11 0.11 0.12 0.15
0.01 0.03 0.04 0.07 0.06 0.11 0.12 0.18 0.32 0.45 0.50 0.50 0.51 0.68 1.00 0.86 0.57 0.55 0.57 0.57 0.54 0.53 0.49 0.46 0.40 0.34 0.27 0.26 0.30 0.31 0.29 0.26 0.23 0.19 0.18 0.18 0.21 0.23 0.24 0.22 0.25 0.28 0.26 0.25 0.25 0.22 0.20 0.21 0.23
0.00 0.01 0.03 0.03 0.04 0.08 0.10 0.17 0.26 0.39 0.43 0.52 0.66 0.75 0.80 0.65 0.51 0.61 0.72 0.75 0.81 0.76 0.68 0.57 0.50 0.45 0.37 0.29 0.28 0.32 0.33 0.32 0.29 0.30 0.30 0.32 0.41 0.53 0.57 0.55 0.60 0.57 0.54 0.51 0.47 0.47 0.45 0.39 0.31
0.00 0.01 0.04 0.02 0.03 0.05 0.08 0.17 0.33 0.41 0.50 0.74 1.10 1.17 0.86 0.71 0.65 0.73 0.92 0.93 1.14 0.98 0.73 0.65 0.53 0.47 0.39 0.31 0.38 0.44 0.45 0.48 0.44 0.56 0.63 0.74 0.88 0.87 0.71 0.92 1.03 0.99 1.03 0.92 0.88 1.04 0.88 0.67 0.59
0.00 0.00 0.00 0.01 0.01 0.03 0.08 0.14 0.22 0.36 0.68 1.13 1.28 1.14 0.89 0.97 0.97 0.94 1.15 1.17 1.10 1.03 1.06 0.99 0.80 0.67 0.58 0.61 0.54 0.56 0.65 0.79 0.76 0.78 0.94 1.17 1.09 0.91 0.82 0.95 1.26 1.41 1.50 1.42 1.50 1.60 1.21 1.17 1.36
0.00 0.00 0.00 0.01 0.01 0.03 0.04 0.07 0.14 0.36 0.84 0.99 0.97 0.92 0.88 1.07 1.08 1.15 1.42 1.48 1.53 1.37 1.55 1.67 1.37 1.23 1.04 0.93 0.83 0.74 0.75 0.91 1.05 1.23 1.30 1.46 1.50 1.35 1.20 1.23 1.42 1.60 1.74 2.05 2.05 1.93 1.78 1.75 1.67
0.00 0.00 0.00 0.00 0.02 0.05 0.04 0.08 0.25 0.55 0.76 0.67 0.57 0.80 0.87 1.14 1.40 1.60 1.74 1.70 1.95 1.98 2.11 2.34 1.92 1.75 1.63 1.55 1.39 1.14 1.16 1.23 1.33 1.56 1.67 1.78 1.94 1.91 1.81 1.73 1.68 1.56 1.74 2.07 2.25 2.16 2.16 2.10 1.98
0.00 0.00 0.00 0.01 0.02 0.04 0.07 0.15 0.35 0.62 0.56 0.54 0.69 1.09 1.29 1.23 1.51 1.91 2.02 2.09 2.39 2.53 2.61 2.69 2.53 2.46 2.28 2.06 1.99 1.85 1.54 1.52 1.53 1.62 1.64 1.84 2.07 2.30 2.37 2.27 2.11 1.82 1.76 1.87 2.18 2.29 2.42 2.31 2.18
0.00 0.01 0.04 0.06 0.07 0.06 0.09 0.33 0.48 0.59 0.48 0.55 0.80 1.14 1.47 1.39 1.54 1.81 2.00 2.46 3.12 3.41 3.23 3.17 3.08 3.24 3.03 2.64 2.32 2.03 1.87 1.85 1.91 1.91 1.84 2.00 2.24 2.44 2.45 2.23 1.90 1.70 1.77 1.87 1.82 1.88 2.19 1.96 1.81
0.01 0.04 0.14 0.16 0.11 0.10 0.16 0.55 0.67 0.63 0.74 0.85 1.05 1.23 1.49 1.48 1.53 1.74 2.18 2.92 3.71 4.16 3.98 3.75 3.35 3.48 3.44 3.13 2.83 2.51 2.25 2.26 2.13 1.94 1.84 1.89 2.10 2.09 2.14 1.79 1.42 1.49 1.71 1.78 1.77 1.74 1.84 1.81 1.85
0.03 0.07 0.14 0.21 0.15 0.13 0.22 0.76 0.78 0.57 0.83 1.09 1.04 1.20 1.42 1.54 1.63 1.74 2.31 3.08 3.76 4.40 4.55 4.51 4.35 3.98 3.74 3.51 3.27 3.05 2.80 2.41 2.04 1.90 1.79 1.66 1.56 1.55 1.65 1.38 1.27 1.36 1.50 1.56 1.53 1.69 1.79 1.68 1.74
0.06 0.09 0.15 0.22 0.17 0.16 0.28 0.60 0.68 0.70 0.84 1.00 1.00 1.04 1.15 1.39 1.70 1.82 2.18 2.83 3.55 4.25 4.73 4.91 4.87 4.44 3.93 3.46 3.03 2.92 2.70 2.38 2.09 1.87 1.66 1.40 1.27 1.25 1.40 1.30 1.19 1.30 1.39 1.39 1.54 1.66 1.72 1.49 1.46
0.06 0.09 0.18 0.23 0.17 0.18 0.33 0.51 0.65 0.74 0.96 1.09 1.08 1.05 1.07 1.36 1.73 1.93 2.24 2.63 3.33 3.94 4.53 4.63 4.79 4.20 3.51 3.00 2.59 2.41 2.17 1.91 1.82 1.69 1.51 1.40 1.26 1.20 1.33 1.22 1.12 1.11 1.15 1.14 1.28 1.38 1.37 1.15 1.34
0.09 0.12 0.20 0.22 0.15 0.16 0.33 0.60 0.78 0.86 0.83 0.90 0.90 0.93 0.98 1.37 1.79 2.17 2.70 3.02 2.99 3.40 4.02 4.03 3.67 3.35 2.86 2.40 2.17 2.00 1.89 1.68 1.50 1.29 1.17 1.07 1.03 1.05 1.08 1.04 0.92 0.91 0.95 0.93 1.01 1.13 1.12 0.99 1.24
0.12 0.14 0.18 0.16 0.15 0.21 0.39 0.74 1.02 0.95 0.69 0.63 0.67 0.71 0.86 1.20 1.62 2.03 2.51 2.87 2.79 3.03 3.08 2.65 2.36 2.30 2.19 1.92 1.80 1.75 1.68 1.48 1.20 0.95 0.82 0.78 0.78 0.77 0.73 0.72 0.73 0.79 0.78 0.81 0.87 1.02 1.13 1.00 1.01
0.08 0.08 0.07 0.07 0.12 0.28 0.42 0.93 1.29 1.10 0.81 0.65 0.64 0.73 0.80 0.90 1.06 1.35 1.62 2.00 2.20 2.20 2.09 1.94 1.81 1.74 1.83 1.76 1.59 1.47 1.20 1.02 0.84 0.70 0.71 0.71 0.65 0.59 0.55 0.55 0.64 0.70 0.73 0.80 0.73 0.78 0.94 1.00 0.90
0.05 0.04 0.05 0.08 0.12 0.27 0.47 0.79 1.16 1.15 1.08 0.90 0.75 0.74 0.66 0.61 0.66 0.81 0.92 1.12 1.35 1.49 1.52 1.43 1.60 1.68 1.66 1.57 1.46 1.40 1.16 0.93 0.78 0.74 0.78 0.74 0.67 0.59 0.51 0.49 0.50 0.59 0.66 0.72 0.73 0.76 0.79 0.85 0.83
0.04 0.05 0.12 0.25 0.37 0.69 0.68 0.72 1.05 1.00 0.93 0.91 0.73 0.57 0.46 0.41 0.49 0.59 0.60 0.68 0.80 0.90 0.99 1.06 1.21 1.41 1.43 1.36 1.29 1.26 1.16 0.97 0.79 0.70 0.68 0.63 0.58 0.55 0.51 0.49 0.50 0.51 0.52 0.56 0.63 0.67 0.71 0.76 0.77
0.05 0.09 0.32 0.69 1.00 1.16 0.72 0.68 0.88 0.75 0.76 0.79 0.57 0.35 0.30 0.31 0.36 0.45 0.46 0.46 0.52 0.57 0.65 0.74 0.85 0.99 1.08 1.12 1.10 1.08 1.11 0.96 0.78 0.60 0.56 0.51 0.44 0.43 0.46 0.47 0.53 0.59 0.59 0.58 0.59 0.63 0.69 0.74 0.79
0.06 0.07 0.19 0.34 0.49 0.68 0.72 1.08 1.00 0.62 0.58 0.47 0.28 0.18 0.18 0.26 0.26 0.27 0.29 0.31 0.36 0.35 0.43 0.51 0.56 0.64 0.74 0.89 1.00 0.91 0.92 0.80 0.68 0.69 0.60 0.48 0.38 0.40 0.48 0.53 0.56 0.59 0.63 0.64 0.71 0.73 0.76 0.81 0.83
0.05 0.05 0.06 0.10 0.15 0.42 0.79 1.15 0.93 0.50 0.45 0.30 0.19 0.12 0.13 0.15 0.17 0.17 0.18 0.18 0.22 0.24 0.28 0.34 0.47 0.57 0.59 0.63 0.77 0.82 0.79 0.73 0.72 0.73 0.65 0.52 0.44 0.38 0.42 0.49 0.59 0.60 0.61 0.66 0.75 0.78 0.82 0.89 0.91
0.06 0.06 0.06 0.07 0.15 0.32 0.65 1.00 1.00 0.69 0.51 0.31 0.20 0.15 0.16 0.15 0.15 0.15 0.13 0.13 0.18 0.21 0.25 0.34 0.43 0.53 0.62 0.61 0.60 0.63 0.74 0.76 0.79 0.76 0.62 0.55 0.49 0.45 0.44 0.45 0.51 0.54 0.56 0.63 0.76 0.81 0.87 1.00 1.05
0.08 0.08 0.09 0.10 0.12 0.21 0.48 0.70 0.57 0.52 0.38 0.27 0.23 0.24 0.19 0.14 0.12 0.11 0.10 0.12 0.18 0.21 0.26 0.32 0.40 0.56 0.68 0.62 0.62 0.68 0.76 0.79 0.79 0.88 0.80 0.63 0.57 0.51 0.44 0.39 0.41 0.43 0.45 0.51 0.66 0.82 0.94 1.05 1.09
0.10 0.10 0.11 0.14 0.16 0.17 0.26 0.43 0.36 0.37 0.30 0.29 0.23 0.23 0.18 0.15 0.13 0.12 0.12 0.15 0.20 0.26 0.30 0.35 0.43 0.53 0.60 0.63 0.66 0.68 0.74 0.75 0.72 0.75 0.79 0.72 0.60 0.52 0.48 0.45 0.43 0.37 0.35 0.44 0.58 0.73 0.90 1.03 1.13